GFSFLT1_con_lsi_000.txt.gz
Lid_Strength_Index
6 7 10 9 6 6 5 5 5 5 4 5 5 3 2 0 -1 -1 -1 -1 -2 -3 -1 -2 -2 -1 -2 -2 -2 -2 -2 -2
8 9 7 7 5 5 5 5 4 4 6 3 1 2 1 -0 -0 -0 -1 -1 -2 -1 -1 -1 -1 -2 -2 -2 -2 -2 -2 -2
8 8 7 5 4 5 5 4 4 4 5 4 2 0 0 -0 -0 -0 -1 -1 -2 -1 -1 -1 -1 -2 -2 -2 -2 -2 -2 -2
9 8 6 5 4 5 5 4 5 5 5 4 1 1 0 -0 -1 -1 -1 -1 -2 -1 -1 -1 -1 -1 -1 -1 -1 -1 -2 -2
8 8 7 6 4 5 5 5 5 4 5 3 2 1 -0 -0 -0 -1 -1 -1 -2 -2 -2 -1 -1 -1 -1 -1 -1 -1 -2 -2
7 8 8 5 5 4 5 5 4 3 5 5 2 0 0 0 0 -0 -1 -1 -1 -2 -2 -2 -2 -1 -1 -2 -1 -1 -2 -2
7 7 6 4 5 4 5 5 4 3 3 2 1 1 1 1 1 -0 -0 -1 -1 -1 -2 -2 -2 -2 -1 -1 -2 -1 -1 -1
5 5 5 4 4 4 6 5 4 4 2 2 2 1 1 1 1 1 1 -0 -1 -1 -1 -2 -1 -2 -2 -2 -1 -1 -1 -1
5 4 4 4 4 4 5 5 4 4 3 3 2 1 1 1 1 1 0 -0 -0 -1 -1 -1 -1 -1 -1 -1 -1 -1 -1 -2
5 4 4 5 4 5 5 4 3 3 2 2 2 2 2 2 1 1 1 -0 -1 -1 -1 -1 -1 -1 -1 -0 -1 -1 -1 -1
5 4 5 5 5 5 4 3 3 3 3 3 2 2 1 1 1 1 1 0 -0 -1 -1 -1 -1 -1 -1 -1 -1 -1 -1 -2
6 5 6 6 6 6 4 3 3 3 3 2 2 2 2 1 1 1 0 0 -0 -0 -1 -1 -1 -1 -1 -1 -1 -1 -1 -1
6 6 6 6 7 7 4 4 4 4 3 2 2 2 2 2 1 1 0 0 -0 -0 -1 -1 -1 -1 -1 -1 -1 -1 -1 -2
5 6 6 7 9 6 4 4 4 4 3 3 2 3 2 1 1 0 0 1 -0 -0 -1 -1 -1 -1 -1 -1 -1 -1 -1 -1
7 5 6 7 7 5 4 4 4 4 3 3 3 3 2 1 1 1 1 1 -0 -1 -0 -1 -1 -1 -1 -1 -1 -1 -2 -2
8 6 7 7 7 5 4 4 4 4 4 3 3 3 1 1 1 1 1 0 -0 -0 -1 -1 -1 -1 -1 -1 -1 -2 -1 -0
7 6 7 7 7 6 4 4 4 4 4 4 3 2 1 1 1 0 1 1 -0 0 -1 -0 0 1 0 1 1 -1 -1 -0
7 6 6 7 7 5 5 4 4 4 4 4 3 3 2 2 1 1 1 1 0 0 -0 -1 -0 -0 0 0 -0 0 0 -0
8 7 6 7 8 6 5 4 4 4 3 3 3 3 3 2 1 1 1 1 1 0 -0 -1 -1 -0 -0 -1 -1 -0 1 0
8 8 10 7 12 8 6 6 5 4 4 4 3 3 3 2 2 1 1 0 1 0 -0 -0 -1 -0 0 1 2 1 0 -0

GFSFLT1_con_lsi_003.txt.gz
Lid_Strength_Index
6 8 10 9 6 5 4 4 4 4 4 4 4 3 2 0 -0 -1 -1 -1 -2 -2 -1 -1 -2 -1 -1 -1 -1 -2 -2 -2
7 9 7 7 5 4 4 4 3 3 5 3 1 2 1 -0 -0 -0 -1 -1 -2 -2 -1 -1 -1 -1 -1 -1 -2 -2 -2 -2
8 8 6 5 4 4 5 4 4 4 5 4 2 0 0 0 -0 -0 -1 -1 -1 -1 -1 -1 -1 -1 -2 -1 -2 -2 -2 -2
9 8 6 5 4 4 4 4 4 4 4 4 1 1 0 -0 -0 -0 -1 -1 -1 -1 -1 -1 -1 -1 -0 -1 -1 -1 -1 -1
8 7 6 5 4 4 4 4 4 3 5 3 2 1 0 -0 -0 -1 -1 -1 -2 -2 -2 -2 -1 -1 -1 -1 -1 -1 -1 -1
7 7 7 4 4 3 4 4 3 3 6 4 2 0 0 -0 -0 -0 -1 -1 -1 -2 -1 -2 -2 -2 -1 -1 -1 -1 -1 -1
7 7 6 4 5 4 3 4 3 4 3 2 1 0 1 1 1 0 -0 -1 -1 -1 -1 -2 -1 -1 -1 -1 -1 -1 -1 -1
5 5 5 5 4 4 4 4 4 3 2 2 2 1 2 1 1 1 1 0 -0 -1 -1 -1 -1 -2 -2 -1 -1 -1 -1 -1
5 5 4 4 4 4 4 5 4 4 3 3 2 1 2 1 1 1 1 -0 -0 -1 -1 -1 -1 -1 -1 -1 -1 -1 -1 -1
5 5 5 5 4 4 4 4 3 3 3 2 2 2 2 2 1 1 1 0 -0 -0 -1 -1 -1 -1 -1 -1 -1 -1 -1 -1
5 5 4 4 5 4 4 3 3 3 3 2 2 2 1 1 1 1 1 0 0 -1 -1 -1 -1 -1 -1 -0 -0 -1 -1 -2
4 4 4 5 5 5 4 3 4 4 3 3 3 2 2 1 1 1 0 0 0 -0 -1 -1 -0 -1 -0 -1 -1 -1 -1 -1
5 4 5 4 6 6 4 3 4 4 3 2 2 2 2 1 1 1 0 0 1 -0 -0 -1 -0 -1 -1 -1 -1 -0 -1 -2
5 5 4 5 8 5 3 3 4 3 3 3 2 2 1 1 1 0 0 1 0 -0 -0 -1 -1 -1 -1 -1 -1 -1 -1 -1
7 5 5 5 7 5 3 4 4 3 3 3 3 2 1 1 1 0 0 0 1 0 -0 -1 -1 -1 -1 -1 -1 -1 -1 -0
8 6 6 6 6 5 4 4 4 4 3 3 3 3 1 1 1 0 0 -0 0 -0 -0 -1 -0 0 -0 -1 -1 -1 -0 -0
7 5 6 7 6 6 4 4 4 4 3 3 3 2 1 1 1 0 0 0 0 1 -0 -0 0 1 1 1 -0 -1 -1 -1
6 5 6 7 7 5 5 4 4 4 3 3 3 3 2 2 1 1 0 0 0 0 0 -0 -0 0 0 0 -0 -0 -0 -1
8 6 6 7 8 7 5 4 4 3 3 3 3 3 3 2 2 1 1 0 0 1 0 -0 -1 -0 -0 -0 -0 0 0 0
7 8 11 6 12 8 6 6 5 4 4 3 3 3 3 2 2 1 1 0 -0 0 0 -0 -1 -0 0 1 2 0 0 -0

GFSFLT1_con_lsi_009.txt.gz
Lid_Strength_Index
9 12 14 13 8 7 8 7 8 8 6 6 7 4 3 2 1 0 0 -0 -0 -1 -1 -1 -1 -1 -1 -1 -1 -1 -1 -1
11 12 9 9 7 7 8 8 7 7 7 5 3 4 2 1 1 1 2 -0 -1 -1 -1 -1 -1 -1 -1 -1 -1 -1 -1 -2
12 11 8 7 6 8 9 8 8 7 7 7 4 2 2 2 2 3 1 0 -0 -1 -1 -1 -1 -1 -1 -1 -1 -1 -1 -1
13 10 7 7 6 6 8 7 7 7 6 7 4 3 3 2 2 1 1 0 0 -1 -2 -2 -2 -2 -1 -1 -1 -0 -1 -1
10 10 8 7 6 7 7 8 8 7 8 6 5 3 3 2 2 2 1 0 0 0 -1 -2 -2 -1 -1 -1 -1 -1 -1 -1
9 10 9 6 6 6 6 7 5 5 8 8 5 3 3 3 3 3 2 2 1 0 1 1 0 -2 -2 -2 -2 -1 -1 -1
10 9 8 7 8 6 5 6 5 5 6 4 3 3 4 5 4 4 3 3 3 2 1 1 0 -0 -1 -2 -2 -1 -1 -1
6 6 7 7 7 7 6 6 6 6 4 3 3 4 5 5 5 5 4 3 2 1 1 1 -0 1 1 0 1 1 1 0
6 5 5 6 8 6 7 7 6 7 6 5 4 5 5 5 5 3 3 2 2 2 1 1 1 1 2 2 1 1 1 1
5 5 6 7 7 7 6 6 4 5 4 5 5 5 5 5 4 3 3 3 1 1 1 2 1 2 1 1 1 1 1 1
5 5 6 6 7 6 6 4 4 5 5 5 5 5 4 4 3 3 3 2 2 2 1 1 2 1 1 1 1 1 1 1
5 6 6 7 6 6 5 4 5 5 6 6 6 4 4 3 3 3 3 3 2 2 1 1 1 1 1 1 1 1 1 1
6 6 7 6 7 7 5 5 5 6 6 6 5 4 4 4 3 3 3 2 2 2 2 2 2 2 1 1 1 1 1 1
8 7 6 7 10 7 5 6 6 5 5 5 6 5 4 3 3 3 2 2 2 1 2 2 2 1 1 1 1 1 1 1
9 6 7 7 9 7 6 6 6 6 6 5 6 5 3 2 2 3 3 2 2 2 2 2 2 1 1 1 2 1 1 2
10 8 8 8 8 7 6 6 7 6 6 5 5 5 3 3 2 2 2 2 2 2 2 2 2 1 2 2 2 1 1 2
8 7 8 8 8 7 7 7 7 7 6 6 5 4 3 3 2 2 2 2 2 2 2 2 2 3 3 3 2 1 1 1
9 7 8 8 9 7 6 7 7 6 6 7 5 4 4 3 3 3 2 2 2 3 2 2 2 2 2 2 2 1 1 1
10 8 8 9 10 9 7 7 6 6 6 5 5 5 4 4 3 3 3 3 2 2 2 2 2 2 2 2 2 2 2 2
9 10 13 9 15 11 9 8 7 6 7 6 5 5 4 4 4 4 3 2 2 2 2 2 2 2 3 3 4 2 2 1

GFSFLT1_con_lsi_012.txt.gz
Lid_Strength_Index
10 12 15 14 9 7 7 8 8 9 7 7 7 4 4 3 1 0 0 -0 -0 -1 -1 -1 -2 -1 -1 -1 -1 -1 -1 -1
11 13 10 10 8 6 8 8 8 8 8 6 4 3 3 1 0 0 0 -0 -1 -1 -1 -1 -1 -1 -1 -1 -1 -1 -1 -1
13 12 9 7 6 8 9 9 9 8 8 7 4 2 3 2 0 1 1 0 -0 -1 -1 -1 -1 -1 -1 -1 -1 -1 -1 -1
13 11 8 8 6 6 8 8 9 8 8 7 4 3 4 3 2 0 1 0 -0 -1 -1 -1 -1 -1 -1 -1 -1 -1 -1 -1
11 10 9 7 6 7 7 7 8 7 8 7 6 4 4 4 1 1 0 0 0 0 -1 -1 -1 -1 -1 -1 -1 -1 -1 -1
10 11 10 7 8 7 7 6 6 6 8 8 5 4 4 4 3 1 1 0 0 1 1 1 0 -1 -1 -1 -1 -2 -1 -1
11 10 8 6 9 7 6 7 6 6 6 5 4 4 5 5 5 5 3 3 2 1 0 1 1 -0 -1 -2 -2 -1 -1 -1
7 7 7 6 8 8 8 8 7 6 4 4 4 5 5 5 5 5 5 4 3 2 2 1 -0 1 1 0 1 1 1 1
7 6 6 6 6 6 8 9 8 7 5 5 5 5 5 5 5 5 4 3 2 2 2 2 2 2 2 2 2 2 2 1
6 5 6 6 6 6 7 7 5 5 4 5 5 5 6 6 5 5 4 3 2 1 2 2 2 2 2 2 2 2 2 1
5 6 6 5 6 7 7 6 5 5 4 5 5 5 6 6 5 5 4 2 2 2 2 2 2 2 2 2 2 2 2 1
6 6 6 7 6 7 6 5 5 6 6 6 5 6 6 6 5 5 3 2 3 2 2 2 2 2 2 2 1 2 2 2
7 7 8 7 8 8 6 6 6 7 7 6 6 5 5 5 5 4 3 2 3 2 2 2 2 2 2 2 1 2 2 2
9 8 7 8 10 7 6 6 7 6 7 7 7 5 5 5 5 5 3 3 2 1 2 2 2 2 2 2 2 2 2 2
11 8 8 8 9 7 6 6 7 7 7 6 7 6 5 4 4 4 3 3 3 3 3 2 2 2 2 2 2 2 2 2
12 9 8 9 9 8 7 7 7 7 7 6 6 6 5 4 4 4 3 3 3 3 2 2 3 2 2 2 2 2 1 1
11 8 9 10 9 8 7 8 8 8 8 7 7 5 4 4 4 3 3 3 3 3 3 3 3 3 4 3 3 2 1 1
10 9 10 10 9 8 7 8 8 8 8 7 6 5 4 4 4 3 3 3 3 3 3 3 3 3 3 3 2 2 2 1
12 9 9 10 11 9 7 7 7 7 7 6 6 6 5 4 4 4 3 3 3 3 3 3 3 3 3 3 2 2 2 2
10 11 14 10 15 12 9 9 8 8 8 7 6 5 4 4 5 5 4 3 3 3 3 2 3 3 4 4 4 3 3 2

GFSFLT1_con_lsi_015.txt.gz
Lid_Strength_Index
10 13 16 14 10 8 7 7 9 10 8 8 8 4 4 3 1 1 0 -0 -0 -1 -1 -1 -1 -1 -1 -1 -1 -1 -1 -1
12 14 11 10 8 7 7 9 9 8 9 7 5 4 4 1 0 1 0 0 -1 -1 -1 -1 -1 -1 -1 -1 -1 -1 -1 -1
13 12 10 8 7 7 9 9 9 8 9 9 6 3 2 1 1 1 1 0 -0 -1 -1 -1 -1 -1 -1 -1 -1 -1 -1 -1
14 11 9 8 7 8 7 7 8 8 8 8 5 4 2 1 1 0 1 0 0 -1 -1 -1 -1 -1 -1 -1 -1 -1 -1 -1
12 11 10 8 7 9 8 8 9 8 9 8 6 4 4 4 2 1 0 0 0 0 -0 -1 -1 -1 -1 -1 -1 -1 -1 -1
11 11 11 7 8 9 8 8 7 5 8 8 6 5 5 3 2 1 1 0 0 0 0 1 1 -1 -1 -1 -1 -1 -1 -1
11 10 9 7 8 6 6 8 7 7 6 5 4 5 5 5 5 4 3 4 3 1 0 1 1 0 -1 -1 -1 -1 -1 -1
7 7 8 7 7 6 7 7 8 7 6 5 5 5 5 5 5 5 4 5 3 2 1 1 0 1 1 1 1 1 0 1
7 6 6 7 7 5 7 8 8 8 7 5 6 6 5 5 5 5 4 5 4 3 3 2 1 1 2 2 2 2 1 2
6 5 7 7 6 6 6 6 5 6 6 6 6 5 5 5 6 7 6 5 3 3 2 2 2 2 2 2 3 2 2 2
6 6 6 6 7 6 6 5 4 5 5 5 5 5 5 5 5 6 6 4 4 2 2 2 2 3 2 2 2 2 2 2
6 6 6 7 7 6 6 5 6 7 6 5 5 5 6 7 6 6 5 4 3 2 2 2 2 2 2 2 2 2 2 2
8 7 7 6 9 8 6 6 7 7 7 6 5 5 6 5 6 5 4 3 3 2 2 2 2 2 3 3 2 2 2 2
10 8 7 9 12 8 6 7 7 7 8 7 6 6 5 6 6 5 3 3 3 1 2 3 3 3 2 2 2 2 2 2
12 9 9 9 11 8 7 7 7 7 7 7 7 7 6 5 5 4 3 3 3 3 3 3 3 3 3 2 3 2 2 2
13 11 9 11 11 8 7 7 8 7 7 7 7 7 6 5 5 4 4 3 3 3 3 3 3 3 3 3 3 2 2 2
12 9 10 11 11 9 8 9 8 8 8 8 7 7 5 5 4 3 4 3 4 3 3 3 4 3 4 4 3 3 2 2
11 9 11 11 11 9 9 9 8 7 7 8 7 6 6 5 4 4 4 4 4 3 3 4 3 3 3 4 3 2 2 2
12 9 10 11 12 10 8 8 7 7 8 8 7 6 6 5 4 4 4 3 3 4 3 3 3 3 3 3 3 3 3 3
10 13 15 11 16 12 10 9 9 8 9 8 7 6 5 5 5 4 4 3 3 3 4 3 3 4 4 4 4 4 4 3

GFSFLT1_con_lsi_021.txt.gz
Lid_Strength_Index
7 10 12 11 8 7 6 4 5 7 6 6 6 4 2 1 -0 -0 -0 -1 -1 -1 -1 -2 -2 -2 -2 -2 -2 -2 -2 -2
9 11 9 9 7 6 6 5 6 6 6 5 3 3 1 0 -0 -0 -0 -1 -1 -1 -1 -1 -2 -1 -1 -2 -2 -2 -2 -2
11 11 9 7 6 5 6 5 5 6 6 5 3 2 0 0 -0 0 -0 -1 -1 -1 -1 -1 -2 -1 -1 -2 -2 -2 -2 -2
11 10 8 6 5 5 6 5 5 6 6 4 3 2 1 0 0 -0 -0 -1 -1 -1 -1 -1 -1 -1 -1 -1 -1 -1 -2 -2
10 9 8 7 5 6 5 5 6 5 6 4 3 2 1 0 -0 -0 -0 -0 -1 -1 -1 -1 -1 -1 -1 -1 -1 -1 -1 -1
9 9 8 6 5 5 5 5 4 4 6 5 2 2 0 0 0 0 -0 -0 -0 -1 -1 -1 -1 -1 -1 -1 -1 -1 -1 -1
9 9 7 5 6 4 4 4 4 3 3 3 3 2 1 1 1 1 1 0 -0 -0 -1 -1 -1 -1 -1 -1 -1 -1 -1 -1
6 6 6 6 5 5 5 5 5 4 3 3 3 3 2 2 2 2 1 1 -0 -0 -0 -1 -1 -1 -1 -1 -1 -1 -1 -1
6 5 5 5 6 4 6 6 5 5 4 3 2 3 3 2 2 2 1 1 0 -0 -1 -0 -0 -1 -1 -1 -1 -1 -1 -2
5 5 5 6 5 6 5 5 3 3 3 3 3 3 3 3 2 2 1 1 0 -0 -0 -0 -1 -0 -1 -0 -1 -1 -1 -2
5 5 5 5 6 6 5 4 3 3 3 3 3 2 2 2 1 1 1 1 1 -0 -0 -0 -0 -0 -0 -1 -0 -1 -1 -2
5 5 5 6 6 5 5 3 4 3 3 3 3 3 2 2 2 2 1 1 0 0 -0 -0 -0 -1 -0 -1 -1 -1 -1 -1
7 6 6 6 9 8 5 4 5 5 4 3 3 3 3 2 2 1 1 1 1 0 -0 -0 -0 -0 -1 -1 -1 -0 -1 -1
8 8 8 8 11 7 6 6 5 5 5 4 4 3 2 1 1 1 1 1 1 0 0 -0 -0 -0 -0 -0 -1 -0 -1 -1
10 8 8 8 10 7 6 6 6 6 5 5 4 3 2 1 1 1 1 1 1 0 0 0 -0 -0 -1 -1 -0 -1 -1 -1
11 9 9 9 9 8 7 6 6 6 5 5 4 3 2 2 2 1 1 1 1 1 0 -0 -0 -0 -0 -0 -0 -1 -0 -1
10 9 10 10 10 8 7 6 6 6 5 5 4 3 3 3 2 2 1 1 1 1 1 0 1 1 1 1 1 0 -0 -1
10 10 10 10 10 8 7 7 6 6 5 5 4 4 3 4 2 2 2 1 1 1 1 0 1 0 -0 0 0 -0 -0 -1
12 10 10 10 11 9 7 7 6 6 5 5 4 4 4 4 3 2 2 2 1 1 1 0 -0 0 0 -0 0 1 0 -0
12 12 14 10 14 10 9 8 7 6 5 4 4 4 4 4 3 3 2 1 1 1 1 0 -0 1 1 1 2 1 0 -0

GFSFLT1_con_lsi_027.txt.gz
Lid_Strength_Index
6 8 9 9 7 6 5 4 4 4 3 4 4 2 2 0 -0 -1 -1 -1 -2 -1 -1 -1 -1 -2 -2 -2 -2 -2 -2 -2
8 9 7 6 6 5 5 4 3 3 5 3 1 2 1 -0 -0 -0 -0 -1 -1 -1 -1 -1 -1 -2 -1 -2 -2 -2 -2 -2
7 7 6 5 4 4 5 4 4 4 5 4 1 0 0 0 -0 -0 -0 -1 -1 -1 -1 -1 -1 -1 -1 -2 -2 -2 -2 -2
9 7 6 5 4 4 4 4 4 4 4 3 1 1 0 -0 -0 -0 -0 -1 -1 -1 -1 -1 -1 -1 -1 -1 -1 -1 -2 -2
7 7 7 5 3 4 4 4 4 3 5 3 2 1 0 -0 -0 -0 -1 -1 -1 -1 -1 -1 -1 -1 -1 -1 -1 -1 -1 -1
7 8 7 4 4 3 4 4 2 3 5 4 2 1 0 -0 0 -0 -0 -0 -1 -1 -1 -1 -1 -1 -1 -1 -1 -1 -1 -1
7 7 6 4 5 3 3 4 3 3 3 2 1 0 1 1 1 0 0 -0 -1 -0 -1 -1 -1 -1 -1 -1 -1 -1 -1 -1
5 5 5 4 4 4 4 4 4 3 2 1 1 1 2 2 1 1 1 0 -0 -1 -1 -1 -1 -2 -1 -1 -1 -1 -2 -2
5 4 4 4 4 3 4 5 4 4 3 2 2 1 2 1 1 1 0 0 -0 -1 -1 -1 -0 -1 -0 -1 -1 -1 -2 -2
4 4 4 5 4 4 4 4 3 2 2 2 2 2 2 2 1 1 1 0 -0 -0 -0 -1 -0 -0 -1 -0 -0 -1 -1 -2
4 4 4 4 5 5 4 3 2 2 2 2 2 2 1 1 1 1 1 0 -0 -0 -0 -0 -0 -1 -0 -0 -0 -1 -1 -2
4 4 4 5 5 4 4 3 3 3 3 2 2 2 1 1 1 1 0 0 -0 -0 -0 -0 -0 -0 -0 -1 -1 -1 -1 -1
5 4 5 4 6 6 3 3 3 3 3 2 2 2 2 1 1 1 0 -0 -0 -0 -0 -0 -0 -0 -0 -0 -0 -0 -1 -2
6 5 5 5 8 5 3 4 4 3 3 3 2 2 1 1 1 0 0 0 -0 0 -0 -0 -0 -0 -0 -0 -0 -1 -1 -1
8 5 5 6 8 5 3 4 4 4 3 3 3 2 1 1 1 0 0 -0 0 -0 0 0 -0 -0 -0 -1 -1 -1 -1 -1
9 6 6 7 7 5 4 4 4 4 3 3 3 2 2 1 0 0 0 -0 -0 0 -0 0 0 -0 -0 -0 -0 -1 -1 -1
7 6 6 7 7 6 4 4 4 4 4 3 3 2 1 1 1 1 0 1 0 0 0 1 1 1 1 1 0 -0 -0 -1
7 6 7 7 7 6 5 5 4 4 4 3 3 3 2 1 2 1 1 1 1 0 0 0 0 0 0 0 0 -0 -0 -1
8 7 6 7 8 7 5 4 4 4 3 3 3 3 2 2 2 1 2 1 1 1 1 0 -0 -0 -0 -0 -0 1 0 0
8 8 11 7 12 8 6 6 5 4 4 4 3 2 2 2 2 2 2 1 1 1 1 0 -0 0 0 1 2 1 -0 -0

GFSFLT1_con_lsi_030.txt.gz
Lid_Strength_Index
6 9 11 9 7 6 5 5 4 4 3 4 4 2 2 1 -0 0 0 -0 -1 -1 -1 -1 -1 -1 -1 -2 -2 -2 -2 -2
9 10 8 7 6 5 6 5 4 4 5 3 2 2 1 0 0 0 0 -0 -1 -1 -1 -1 -1 -1 -1 -1 -1 -2 -2 -2
8 8 6 6 5 5 6 5 4 4 5 4 2 1 0 0 0 0 0 -0 -0 -1 -1 -1 -1 -1 -1 -1 -1 -2 -2 -2
10 8 6 5 4 4 5 5 4 5 5 4 1 1 1 0 0 -0 0 -0 -0 -1 -1 -1 -1 -1 -1 -1 -1 -1 -2 -2
8 8 7 6 4 5 5 5 5 3 6 3 2 1 -0 -0 -0 -0 -0 -0 0 -0 -1 -1 -1 -1 -1 -1 -1 -1 -1 -1
8 8 8 5 5 4 5 5 3 3 5 5 2 1 1 1 0 0 0 0 0 -0 -0 -0 -1 -1 -1 -1 -1 -1 -1 -1
9 8 7 5 5 4 3 4 3 3 3 2 1 1 1 1 1 1 1 0 0 0 0 -0 -0 -1 -1 -1 -1 -1 -1 -1
6 6 6 5 5 5 5 5 4 4 2 2 1 2 2 2 2 2 1 0 0 0 0 0 -0 -0 -0 -1 -1 -0 -0 -1
5 5 4 5 5 4 5 6 5 5 3 2 2 2 2 2 2 2 1 1 0 0 0 0 0 0 -0 -0 -0 -0 -0 -1
5 4 5 5 4 5 5 5 3 3 2 2 2 2 2 2 2 2 1 0 -0 0 1 0 0 0 0 0 -0 0 -0 -0
4 4 5 4 5 5 5 3 3 3 3 3 3 2 2 2 1 1 1 0 0 0 1 1 0 0 0 0 0 -0 -0 -0
5 5 4 5 5 5 4 3 3 3 3 3 3 2 2 2 2 1 0 0 0 0 1 0 1 0 0 0 0 -0 -0 -0
5 5 5 4 7 6 4 3 4 4 3 3 3 2 2 2 2 1 0 1 1 1 1 1 1 0 0 0 -0 0 -0 -0
6 5 5 5 9 6 4 4 4 4 4 3 3 2 2 1 1 -0 1 1 1 0 1 1 1 0 0 0 0 -0 -0 -0
8 5 6 6 8 5 4 4 5 4 4 4 3 3 1 1 1 1 1 1 1 1 1 1 1 0 0 -0 0 -0 -0 -0
9 7 6 7 7 6 5 5 5 4 4 4 3 3 2 1 1 1 1 0 0 1 1 1 1 1 1 0 0 -0 -0 -0
8 6 7 8 7 6 5 5 5 5 4 4 4 3 2 1 1 1 0 0 1 1 1 1 2 2 2 2 1 1 0 -0
7 6 7 7 8 6 5 5 5 5 4 4 4 3 3 2 1 2 2 2 1 1 1 1 1 1 1 1 1 0 0 0
9 7 7 7 9 8 6 5 5 4 4 4 4 4 3 3 3 2 2 2 2 1 1 1 1 1 1 1 1 1 1 1
8 9 11 7 13 9 7 7 5 5 4 4 4 3 3 3 3 3 2 2 2 1 1 1 1 1 1 2 3 1 1 1

GFSFLT1_con_lsi_033.txt.gz
Lid_Strength_Index
9 11 13 12 8 7 6 5 5 6 5 5 5 3 3 2 1 0 0 0 -0 -1 -1 -1 -2 -2 -2 -2 -2 -2 -2 -2
10 12 9 8 7 6 6 5 5 5 6 4 2 3 2 1 0 1 0 -0 -1 -1 -1 -1 -2 -2 -2 -2 -2 -2 -2 -2
11 10 8 7 6 6 6 6 5 5 6 5 3 2 2 1 1 1 1 0 -0 -1 -1 -1 -1 -1 -1 -1 -1 -2 -2 -2
13 10 7 6 6 6 6 5 5 5 5 6 3 3 2 1 2 0 1 0 -0 -1 -1 -1 -1 -1 -1 -1 -1 -1 -2 -2
11 10 9 7 5 7 7 7 6 5 7 5 4 3 2 2 2 2 0 0 0 -0 -1 -1 -1 -1 -1 -1 -1 -1 -1 -1
11 11 10 6 6 6 6 6 3 3 6 7 4 2 2 3 2 2 1 1 0 0 -0 0 -0 -1 -1 -1 -1 -1 -1 -1
12 10 9 6 7 5 4 5 5 4 4 3 3 2 4 4 4 4 2 1 1 0 0 0 -0 -0 -1 -1 -1 -1 -1 -1
9 8 8 7 6 5 5 5 5 4 3 3 3 4 4 5 5 5 4 2 1 1 1 0 -0 0 0 -0 -0 -0 -0 0
8 7 6 6 6 5 6 7 6 6 4 3 4 4 4 5 5 5 4 2 1 1 0 0 0 0 -0 -0 -0 -0 0 0
6 5 6 6 5 6 6 6 5 4 4 4 4 5 5 5 5 5 4 3 1 1 1 1 0 0 0 0 0 0 0 0
5 5 5 5 6 6 6 5 4 4 4 5 5 5 4 4 4 4 4 3 2 1 1 1 1 1 0 0 0 0 0 0
6 6 6 6 6 6 5 4 4 4 5 5 4 4 4 4 4 4 3 3 2 1 1 1 1 1 1 0 0 1 1 0
7 7 7 6 8 7 5 5 5 5 5 4 4 4 4 4 4 3 3 3 2 1 1 1 1 1 1 1 1 1 1 0
9 8 7 7 10 6 5 5 5 5 4 4 4 4 4 4 4 3 3 3 2 1 1 1 1 2 1 1 2 2 2 1
10 7 7 8 9 6 5 5 5 5 5 4 4 4 4 3 4 4 3 3 2 2 2 1 1 1 2 1 2 2 3 2
11 8 7 8 8 6 5 6 6 5 5 5 4 5 4 3 3 3 3 2 2 2 2 2 1 1 1 2 3 2 2 2
9 7 8 8 8 7 6 7 7 7 6 6 5 5 4 3 4 3 3 2 2 2 2 1 2 2 3 4 3 3 2 2
10 7 8 8 9 7 6 6 6 6 6 6 5 5 4 4 4 3 3 3 3 3 2 2 2 3 3 4 4 3 2 1
12 9 9 9 11 10 8 7 6 6 6 6 6 6 5 5 4 3 3 3 3 3 3 2 2 3 3 3 3 2 2 2
10 11 14 9 14 10 9 8 7 6 6 6 6 5 5 5 4 4 3 2 2 2 2 3 3 3 3 4 4 3 3 2

GFSFLT1_con_lsi_036.txt.gz
Lid_Strength_Index
9 11 13 13 8 8 6 5 5 6 5 6 6 3 3 2 1 0 0 0 -0 -1 -1 -1 -1 -2 -2 -2 -2 -2 -2 -2
11 12 10 9 8 7 6 5 5 5 7 6 3 3 2 1 0 1 1 -0 -1 -1 -1 -1 -1 -1 -2 -2 -2 -2 -2 -2
12 11 8 7 6 6 7 7 6 5 7 6 4 2 1 1 1 1 1 0 -0 -1 -1 -1 -1 -1 -1 -2 -2 -2 -2 -2
13 10 8 7 6 6 6 6 6 6 6 7 4 2 2 1 1 0 1 0 0 -1 -1 -1 -1 -1 -1 -1 -1 -1 -1 -2
12 11 9 7 6 7 6 6 6 5 7 6 4 3 1 1 1 1 0 0 0 -0 -1 -1 -1 -1 -1 -1 -1 -1 -1 -1
13 12 11 7 7 7 7 6 4 3 7 7 5 3 3 2 2 1 1 0 0 0 0 -0 -0 -1 -1 -1 -1 -1 -1 -1
13 11 10 7 8 5 5 5 5 4 5 4 3 3 4 5 5 4 2 1 0 0 0 0 0 -0 -1 -1 -1 -1 -1 -1
9 9 10 8 8 7 6 6 6 5 4 3 3 4 4 5 5 4 2 2 1 1 0 0 -0 0 0 -0 -0 -0 -0 -0
7 8 8 8 8 7 7 8 6 6 5 4 4 5 5 5 5 5 3 1 1 1 0 0 0 0 0 0 0 0 0 0
6 6 6 7 7 7 7 7 5 5 4 4 5 5 5 5 5 6 5 2 1 1 1 1 0 0 0 0 0 0 0 0
6 5 6 5 7 7 6 5 4 5 5 5 5 5 5 5 5 5 6 5 1 1 1 1 1 1 0 0 0 0 0 0
7 7 7 7 7 6 6 5 5 6 6 6 6 5 6 5 5 5 4 4 2 1 1 1 1 1 1 0 0 0 0 0
9 9 8 6 9 8 6 5 6 5 5 6 6 5 5 4 4 4 4 4 3 1 1 1 1 1 1 1 0 0 0 0
10 9 8 8 12 7 5 6 6 6 5 5 5 4 4 4 5 4 4 3 4 1 1 1 1 2 1 1 1 1 1 1
11 8 8 9 11 7 6 6 7 6 5 5 4 5 5 4 4 4 4 3 4 2 2 1 2 1 1 1 1 2 1 1
11 8 8 9 9 8 6 6 6 6 5 5 5 5 4 4 4 4 4 4 3 2 2 1 1 2 2 3 3 3 3 2
10 9 9 9 9 8 7 7 7 6 6 6 5 4 4 4 4 3 2 2 2 2 2 2 2 3 4 4 5 4 3 2
11 10 10 10 10 8 7 7 7 7 6 7 7 6 5 5 3 3 3 3 3 2 2 2 2 3 4 4 5 4 3 2
13 11 10 11 12 11 8 8 7 7 7 7 6 6 6 5 4 3 3 3 3 2 3 3 3 3 4 4 4 5 5 4
11 13 16 11 16 12 10 9 8 8 8 8 6 6 6 6 5 4 3 3 3 3 3 3 3 4 4 5 5 5 4 3

GFSFLT1_con_lsi_039.txt.gz
Lid_Strength_Index
9 12 13 13 11 9 7 6 6 7 6 6 6 3 3 2 1 1 0 0 -0 -1 -1 -1 -1 -1 -1 -1 -2 -2 -2 -2
11 12 10 11 9 8 7 7 5 6 7 6 3 3 2 1 1 1 1 -0 -0 -1 -1 -1 -1 -1 -1 -1 -2 -2 -2 -2
12 11 9 7 7 8 8 7 6 6 7 6 4 2 1 1 1 1 1 0 -0 -1 -1 -1 -1 -1 -1 -1 -1 -2 -2 -2
13 11 8 7 8 8 7 7 6 7 7 6 4 2 2 1 1 1 1 0 0 -1 -1 -1 -1 -1 -1 -1 -1 -1 -1 -2
12 11 9 7 7 8 8 7 6 6 7 7 5 3 1 1 1 1 0 0 0 0 -0 -1 -1 -1 -1 -1 -1 -1 -1 -1
12 11 10 7 7 7 8 7 5 4 7 8 5 4 2 2 2 2 1 1 1 0 0 0 -0 -1 -1 -1 -1 -1 -1 -1
12 11 10 8 8 6 6 6 6 5 5 4 4 4 4 6 5 3 1 1 1 0 0 0 0 -0 -1 -1 -1 -1 -1 -1
9 9 10 8 9 8 8 7 7 6 4 4 3 4 5 6 4 4 2 2 1 1 1 0 0 0 0 0 0 -0 -0 0
8 8 7 7 8 7 8 9 7 7 6 5 5 5 5 4 5 4 3 2 1 1 0 1 0 0 0 0 0 0 0 0
7 6 6 7 6 8 8 8 6 5 5 5 5 6 6 5 5 6 5 2 1 1 1 1 0 0 0 0 0 0 0 0
6 6 6 6 7 7 7 6 4 4 5 6 6 6 6 6 5 6 7 5 1 1 1 1 1 1 0 1 0 0 0 0
9 9 8 7 7 7 6 4 5 5 6 6 7 6 6 6 6 6 6 6 2 1 1 1 1 1 1 0 0 0 0 0
11 10 10 8 9 9 7 5 6 6 6 6 7 6 7 6 6 6 5 5 4 1 1 1 1 1 1 1 1 1 0 0
11 10 9 9 12 8 6 6 6 6 6 7 7 6 5 5 5 5 5 5 5 1 1 1 1 1 1 1 1 1 1 0
12 10 9 9 12 8 7 7 7 7 7 6 6 6 5 4 4 5 5 5 5 3 2 1 1 2 2 1 1 1 1 1
13 10 8 9 10 8 7 7 7 7 7 6 7 6 4 4 4 5 5 5 4 4 2 2 3 3 2 2 2 2 2 1
11 9 9 9 10 9 7 7 7 7 7 7 6 5 4 5 4 5 5 5 4 3 2 2 2 2 3 3 3 4 2 1
12 10 11 11 11 9 8 8 8 7 7 7 6 5 5 5 6 5 4 3 3 2 2 2 2 3 4 4 5 4 3 2
14 11 11 12 13 12 10 9 8 7 7 7 7 7 6 6 6 5 4 3 3 3 3 3 3 4 5 5 5 5 5 4
12 14 16 12 18 13 12 11 10 9 8 8 8 7 7 6 6 4 3 3 3 3 3 3 3 4 4 5 6 6 5 4

GFSFLT1_con_lsi_042.txt.gz
Lid_Strength_Index
9 13 14 15 11 10 8 7 7 7 7 6 6 4 4 2 1 0 0 -0 -0 -1 -1 -1 -1 -1 -1 -1 -2 -2 -2 -2
11 13 11 12 11 9 9 8 6 6 8 6 4 3 3 1 1 1 1 -0 -0 -1 -1 -1 -1 -1 -1 -1 -2 -2 -2 -2
13 12 9 9 9 9 9 9 7 6 8 7 3 2 1 1 1 1 1 0 -0 -1 -1 -1 -1 -1 -1 -1 -1 -2 -2 -2
15 12 9 8 9 9 9 8 6 7 7 6 4 2 2 1 1 1 1 0 0 -1 -1 -1 -1 -1 -1 -1 -1 -1 -2 -2
12 11 10 9 8 9 9 8 7 6 7 7 6 3 1 1 2 2 1 0 0 -0 -0 -1 -1 -1 -1 -1 -1 -1 -1 -1
11 11 11 8 8 8 8 8 5 5 7 8 6 2 2 2 2 3 2 1 0 0 0 -0 -0 -1 -1 -1 -1 -1 -1 -1
12 11 10 8 9 8 7 7 6 6 5 5 4 2 3 4 4 2 2 2 1 0 0 0 0 -0 -1 -1 -1 -1 -1 -1
10 9 10 8 9 8 8 8 8 7 5 4 4 5 4 4 4 4 3 2 2 1 0 0 0 0 -0 -0 -0 -0 -0 -0
9 8 8 8 8 7 8 10 8 8 6 6 5 5 5 5 4 3 2 2 2 2 1 0 0 0 -0 -0 -0 -0 -0 -0
7 6 7 7 6 7 7 7 6 6 6 6 6 6 6 6 5 5 4 3 1 1 1 1 0 0 0 0 0 0 -0 -0
6 6 6 6 7 7 7 5 5 5 5 6 6 6 6 6 5 5 6 5 4 1 1 1 1 0 0 0 0 0 -0 -0
8 8 8 9 9 9 7 6 6 6 6 7 7 6 6 6 6 6 6 6 5 2 1 1 1 1 1 0 0 0 0 -0
11 11 10 8 10 9 7 7 7 6 6 6 7 6 6 6 6 6 6 6 6 4 1 1 1 1 1 1 0 0 0 -0
11 11 10 9 13 8 7 7 8 7 6 6 6 6 6 6 6 6 6 6 5 3 1 1 1 1 1 1 1 0 0 -0
14 11 11 10 13 9 7 7 8 8 7 7 7 7 6 6 6 6 6 6 5 4 1 1 1 1 1 1 1 1 1 0
15 12 10 12 12 10 8 8 8 8 7 7 7 7 6 6 5 6 5 5 5 5 3 1 2 2 2 2 1 1 1 1
12 9 10 12 12 11 9 9 9 8 7 7 7 6 6 5 5 5 5 5 5 5 4 2 2 3 3 2 2 2 1 1
13 11 11 12 13 12 11 10 9 8 8 7 7 8 6 6 6 6 5 5 5 5 2 2 2 3 3 3 3 3 2 1
14 12 11 12 13 12 10 10 9 9 8 7 7 7 6 6 6 6 6 5 4 3 2 2 2 3 4 4 4 4 4 3
13 14 17 13 18 13 12 11 11 10 9 9 9 7 6 6 6 6 6 3 2 2 2 2 3 3 3 4 5 5 4 4

GFSFLT1_con_lsi_045.txt.gz
Lid_Strength_Index
7 10 12 11 9 9 7 6 6 6 4 5 5 3 2 1 0 -0 -0 -1 -1 -1 -1 -1 -1 -1 -1 -2 -2 -2 -2 -2
9 10 9 9 8 7 7 6 5 5 6 5 2 2 1 0 -0 0 -0 -1 -1 -1 -1 -1 -1 -1 -1 -2 -2 -2 -2 -2
10 10 8 6 8 7 8 7 6 4 6 5 2 1 1 0 0 0 0 -1 -1 -1 -1 -1 -1 -1 -1 -1 -2 -2 -2 -2
13 11 8 7 7 8 8 7 6 5 5 5 2 2 1 0 0 -0 0 -0 -1 -1 -1 -1 -1 -1 -1 -1 -1 -1 -2 -2
11 11 10 8 7 8 7 6 5 4 6 4 3 1 1 0 0 -0 -0 -0 -1 -1 -1 -1 -1 -1 -1 -1 -1 -1 -1 -1
10 11 10 7 6 6 6 6 4 3 6 5 3 1 1 0 0 0 0 -0 -0 -1 -1 -1 -1 -1 -1 -1 -1 -1 -1 -1
11 10 9 6 7 5 5 6 6 4 4 3 2 1 1 2 1 1 1 0 -0 -0 -1 -1 -1 -1 -1 -1 -1 -1 -1 -1
8 8 8 7 6 6 7 7 6 5 4 3 2 2 3 3 2 2 1 1 0 -0 -0 -0 -0 -1 -1 -1 -1 -1 -1 -2
7 7 7 7 6 5 6 8 6 6 5 4 3 3 3 2 2 2 1 1 0 -0 -1 -0 -0 -0 -1 -1 -1 -1 -1 -2
6 6 6 7 6 6 6 7 5 4 4 4 4 3 3 2 2 1 1 1 0 -0 -0 -0 -0 -0 -0 -0 -0 -0 -1 -2
6 5 6 5 6 6 6 4 3 3 3 3 3 3 2 2 2 1 1 1 0 -0 0 -0 0 -0 -0 -0 -0 -0 -1 -1
6 6 6 7 6 6 5 4 4 4 4 4 3 3 3 3 2 1 1 1 -0 -0 -0 -0 0 -0 0 -0 -0 -0 -0 -1
7 6 7 6 8 7 5 5 5 5 4 4 4 4 3 2 1 1 1 0 -0 -0 -1 0 0 0 -0 -0 -0 -0 -0 -1
9 9 8 7 11 7 5 6 6 6 5 5 4 4 3 1 1 1 1 0 0 1 1 -0 0 0 0 -0 -0 -0 -0 -1
11 9 9 9 10 7 6 6 6 5 5 5 5 4 3 2 1 1 0 1 0 -0 0 0 -0 -0 -0 -0 -0 -0 -0 -0
11 9 9 10 10 8 6 6 6 6 5 5 5 4 2 2 1 1 0 0 0 0 -0 0 0 0 0 0 0 -0 -0 -0
10 8 9 10 10 9 7 7 7 7 6 5 5 4 3 2 1 1 1 1 1 0 0 0 1 1 1 2 1 1 0 -0
10 9 9 9 10 9 9 9 8 7 7 6 5 5 4 2 2 1 1 1 1 0 0 1 1 1 1 1 1 1 0 -0
12 10 9 10 11 9 8 8 7 6 7 6 5 5 3 3 2 1 1 1 1 0 1 1 0 1 1 1 1 1 1 1
11 11 13 10 15 10 9 8 8 7 6 6 5 5 4 2 2 2 2 1 0 1 1 1 0 1 1 2 3 2 1 1

GFSFLT1_con_lsi_048.txt.gz
Lid_Strength_Index
7 9 10 8 7 6 5 4 4 5 3 4 5 2 2 1 -0 -1 -1 -1 -2 -1 -1 -1 -1 -1 -1 -1 -2 -2 -2 -2
8 9 7 6 5 6 5 5 4 4 5 3 2 2 1 -0 -0 -0 -0 -1 -1 -1 -1 -1 -1 -1 -1 -1 -2 -2 -2 -2
9 9 6 5 5 6 6 6 5 4 5 4 2 1 0 0 -0 -0 -0 -1 -1 -1 -1 -1 -1 -1 -1 -1 -2 -2 -2 -2
10 9 6 5 6 7 6 5 5 5 5 4 1 1 1 -0 -0 -0 -0 -1 -1 -1 -1 -1 -1 -1 -1 -1 -1 -2 -2 -2
10 9 8 6 5 8 7 6 5 3 5 3 2 1 0 -0 -0 -0 -1 -1 -1 -1 -1 -1 -1 -1 -1 -1 -1 -1 -1 -1
9 10 9 6 5 7 6 6 3 3 5 5 2 1 0 0 0 -0 -0 -0 -1 -1 -1 -1 -1 -1 -1 -1 -1 -1 -1 -1
8 9 8 6 6 5 5 5 4 3 3 2 2 1 1 1 1 0 0 -0 -1 -1 -1 -1 -1 -1 -1 -1 -1 -1 -1 -1
6 6 8 7 5 5 6 6 4 4 3 2 1 2 2 2 2 1 1 0 -0 -1 -1 -1 -1 -2 -1 -1 -1 -2 -2 -2
5 5 6 7 6 4 5 6 4 4 3 3 2 2 2 2 1 1 0 0 -0 -1 -1 -1 -1 -1 -1 -1 -1 -1 -2 -2
5 4 6 7 6 5 5 4 4 4 3 3 2 2 2 2 1 1 1 0 -0 -1 -1 -1 -1 -0 -1 -0 -1 -1 -1 -2
5 5 5 5 6 5 4 3 3 3 3 3 2 2 1 1 1 1 1 0 -0 -1 -1 -1 -0 -1 -1 -0 -0 -1 -1 -2
5 6 5 6 6 5 4 3 3 3 3 3 3 2 2 1 1 1 0 0 -0 -1 -1 -1 -0 -1 -0 -1 -1 -1 -1 -1
6 6 6 5 7 7 4 3 4 3 3 3 3 2 2 1 1 0 0 -0 -0 -1 -1 -1 -1 -0 -0 -1 -1 -0 -1 -1
7 5 6 6 10 6 4 4 4 4 3 3 3 2 1 1 1 0 0 -0 -1 -0 -1 -1 -1 -1 -0 -1 -1 -1 -1 -1
8 5 6 8 9 6 4 4 4 4 4 3 3 2 1 1 1 0 -0 -0 -0 -1 -0 -1 -1 -0 -1 -1 -0 -0 -1 -1
9 6 6 7 9 7 5 5 5 5 4 4 3 3 2 1 1 1 0 -0 -0 -0 -1 -1 -0 -1 -0 -0 -0 -0 -0 -0
8 7 7 7 7 6 6 6 5 5 5 4 4 3 2 2 1 1 0 -0 0 0 -0 0 0 1 1 1 1 0 -0 -1
8 7 7 7 8 6 5 5 5 5 5 4 4 3 2 2 1 1 0 0 0 -0 -0 0 0 0 0 0 0 0 -0 -0
10 8 7 8 9 7 5 5 4 5 5 5 4 4 3 3 2 1 1 0 0 0 -0 -0 -0 0 0 0 0 1 1 0
9 9 12 8 13 8 7 6 5 5 5 5 5 4 3 3 3 1 1 0 0 -0 -0 -0 -0 0 1 2 2 1 1 0

GFSFLT1_con_lsi_051.txt.gz
Lid_Strength_Index
7 7 9 8 6 5 4 4 4 4 3 4 4 2 2 0 -0 -0 -0 -1 -1 -1 -1 -1 -1 -1 -1 -1 -1 -1 -1 -1
8 9 7 6 5 5 4 4 3 4 5 3 2 2 1 0 -0 0 -0 -1 -1 -1 -1 -1 -1 -1 -1 -1 -1 -2 -2 -2
8 8 6 5 4 4 5 5 4 4 5 4 2 1 0 0 0 0 -0 -1 -1 -1 -1 -1 -1 -1 -1 -1 -1 -1 -2 -2
10 9 7 5 4 4 4 4 4 4 4 4 1 1 1 0 0 -0 -0 -1 -1 -1 -1 -1 -1 -1 -1 -1 -1 -1 -2 -2
9 9 7 5 3 4 4 4 4 3 5 3 2 1 0 0 -0 -0 -0 -0 -1 -1 -1 -1 -1 -1 -1 -1 -1 -1 -1 -1
7 8 8 6 5 4 4 4 2 2 5 5 2 1 0 0 0 -0 -0 -0 -0 -1 -1 -1 -1 -1 -1 -1 -1 -1 -1 -1
7 7 7 5 6 4 3 4 4 3 3 2 1 1 1 1 1 0 0 -0 -0 -0 -1 -1 -1 -1 -1 -1 -1 -1 -1 -1
5 5 5 5 5 4 4 5 5 3 2 2 1 1 2 2 2 1 1 0 -0 -1 -1 -1 -1 -1 -1 -1 -1 -1 -2 -2
5 4 4 5 5 4 4 5 4 4 3 2 2 2 2 2 1 1 0 0 -0 -1 -1 -1 -0 -0 -0 -1 -1 -1 -2 -2
5 4 4 5 5 5 4 4 3 2 2 2 2 2 2 2 1 1 1 0 -0 -0 -0 -1 -0 -0 -0 -0 -1 -0 -1 -2
5 4 4 4 5 5 5 3 3 3 2 3 2 2 1 1 1 1 1 0 -0 -1 -0 -0 -0 -0 -0 -0 -0 -1 -1 -1
5 5 4 5 5 5 4 3 3 3 3 2 2 2 2 1 1 1 0 0 -0 -1 -1 -0 0 -0 -0 -1 -1 -1 -1 -1
5 5 6 5 7 7 4 3 4 3 3 2 2 2 2 1 1 1 0 -0 -0 -1 -1 -0 -0 -0 -0 -0 -1 -0 -0 -1
7 5 5 5 9 6 4 4 4 4 3 3 2 2 1 1 1 0 0 0 -0 -0 -0 -0 -0 -0 -0 -0 -0 -0 -0 -1
8 5 5 6 8 5 4 4 5 4 4 3 3 2 1 1 1 0 -0 -0 0 -0 -0 -1 -1 -1 -1 -1 -0 -0 -0 -1
9 6 6 7 7 5 4 5 5 4 4 3 3 2 2 1 1 0 0 -0 -0 -0 -1 -1 -1 -1 -0 -0 -0 -0 -0 -0
8 6 6 7 7 6 5 5 5 5 4 4 3 2 1 1 1 0 -0 0 0 0 -0 0 0 1 1 1 0 0 -0 -1
9 7 7 7 7 6 5 5 4 4 5 4 3 3 2 1 1 1 1 0 0 0 0 0 0 0 0 0 0 0 -0 -0
10 8 6 7 9 7 5 4 4 4 4 4 4 3 3 2 2 1 1 1 1 0 0 0 -0 0 0 0 0 1 1 1
10 10 12 7 13 8 7 6 5 4 4 4 3 3 3 2 2 2 1 1 0 0 0 0 -0 0 1 2 2 1 1 1

GFSFLT1_con_lsi_057.txt.gz
Lid_Strength_Index
10 13 14 13 10 8 7 5 6 6 5 5 6 3 3 1 1 0 1 0 -0 -1 -1 -1 -1 -1 -1 -1 -1 -1 -1 -1
13 14 11 9 9 7 7 6 5 5 6 4 2 3 2 1 0 1 1 0 -0 -1 -1 -1 -1 -1 -1 -1 -1 -1 -1 -1
14 13 10 8 7 7 8 7 6 6 6 6 3 2 1 1 1 1 1 0 -0 -1 -1 -1 -1 -1 -1 -1 -1 -1 -1 -1
14 11 9 7 7 8 8 8 6 6 6 6 2 2 2 1 1 0 1 0 0 -1 -1 -1 -1 -1 -1 -1 -1 -1 -1 -1
12 11 9 8 7 8 8 8 8 7 6 5 3 2 2 1 1 1 0 0 0 0 -0 -1 -1 -1 -1 -1 -1 -1 -1 -1
10 10 9 6 6 8 8 7 5 6 7 7 3 2 2 1 3 1 1 1 1 0 0 0 -0 -1 -1 -1 -1 -1 -1 -1
10 10 8 6 7 5 5 6 6 6 4 3 2 2 3 4 3 2 1 1 1 0 0 0 0 -0 -1 -1 -1 -1 -1 -1
7 7 7 6 6 6 6 7 6 6 3 2 2 3 4 4 4 3 2 2 1 1 0 0 -0 0 0 0 0 0 0 0
8 6 6 6 6 5 6 8 6 7 6 3 3 4 3 4 4 3 2 2 1 1 0 0 0 0 0 0 0 -0 0 0
8 7 7 7 6 6 6 6 5 4 5 5 4 4 3 3 4 3 2 2 1 1 1 0 0 0 0 0 0 0 0 0
9 8 7 6 7 7 6 4 3 4 4 5 4 4 4 4 3 2 3 2 3 1 1 1 1 0 0 0 0 0 0 0
8 9 9 9 8 7 6 5 4 4 4 4 4 4 4 4 3 2 3 3 3 4 1 1 1 1 1 0 0 0 1 1
8 8 9 8 10 10 7 5 5 5 4 4 4 5 4 4 3 2 2 2 2 2 2 1 1 1 1 0 0 0 1 1
11 8 7 8 12 8 7 7 7 5 5 4 4 4 3 3 3 2 2 2 2 1 1 1 1 1 1 0 1 1 1 1
12 9 9 8 10 7 6 6 6 6 6 4 4 4 4 3 3 2 2 2 2 2 1 1 1 1 1 1 1 0 1 1
13 11 10 10 11 9 7 6 6 5 5 5 5 4 3 3 2 2 2 2 2 2 2 1 1 1 1 1 1 1 1 1
11 9 11 11 11 10 8 8 7 6 5 6 4 4 3 3 2 2 2 2 2 2 2 3 4 3 4 3 4 3 2 1
11 9 10 11 11 10 9 9 8 8 6 5 5 4 4 4 3 3 3 2 2 2 2 2 2 2 2 2 2 2 1 1
12 10 10 11 13 11 9 8 7 7 6 5 5 4 4 4 4 3 3 3 2 2 2 2 2 2 2 2 2 2 2 2
11 12 16 11 17 13 11 10 9 8 7 6 6 5 4 4 4 4 3 2 2 2 2 2 1 2 3 3 4 3 2 2

GFSFLT1_con_lsi_060.txt.gz
Lid_Strength_Index
11 14 16 14 11 10 8 7 7 7 5 6 6 4 3 2 1 0 0 0 -0 -1 -1 -1 -1 -1 -1 -1 -1 -1 -1 -1
13 14 12 11 9 9 8 8 9 7 7 5 3 3 2 1 1 1 1 0 -0 -1 -1 -1 -1 -1 -1 -1 -1 -1 -1 -1
15 13 11 9 9 9 9 9 10 8 7 6 3 2 1 1 1 1 1 0 -0 -1 -1 -1 -1 -1 -1 -1 -1 -1 -1 -1
15 12 9 8 8 9 9 9 9 9 7 6 2 2 2 1 2 1 1 0 0 -1 -1 -1 -1 -1 -1 -1 -1 -1 -1 -1
12 12 10 8 8 8 9 9 10 8 7 6 4 2 1 1 1 2 0 0 0 0 -0 -1 -1 -1 -1 -1 -1 -1 -1 -1
12 11 10 7 6 8 8 7 7 7 7 7 5 3 1 1 1 1 1 1 0 0 0 0 -0 -1 -1 -1 -1 -1 -1 -1
11 10 9 6 7 5 5 6 7 7 4 4 3 3 3 2 2 2 1 1 1 0 0 0 0 -0 -1 -1 -1 -1 -1 -1
8 7 8 7 6 6 6 6 6 7 5 3 3 3 4 3 4 3 3 2 1 0 0 0 -0 0 0 -0 0 -0 0 0
9 8 7 8 7 6 7 7 6 6 6 6 7 5 4 4 3 3 2 2 1 1 0 0 0 0 0 0 0 0 0 0
9 8 8 9 7 8 7 6 5 4 5 6 5 7 6 4 3 3 2 2 1 1 1 0 0 0 0 0 0 0 0 0
10 9 9 7 8 8 8 6 4 4 4 5 5 5 5 3 4 4 3 2 1 1 1 1 1 0 0 0 0 0 0 -0
11 11 10 10 9 8 8 6 6 5 5 5 4 5 4 3 3 3 2 2 2 1 1 1 1 1 1 0 0 0 0 0
10 9 9 8 11 11 8 7 8 7 6 4 4 4 5 5 3 3 2 2 2 1 1 1 1 1 1 1 0 0 1 1
11 9 8 8 13 9 8 9 9 8 7 6 5 4 5 5 3 3 3 3 3 1 2 1 1 1 1 0 0 0 0 0
13 10 10 10 12 9 7 8 9 8 8 6 6 5 4 5 4 3 3 2 2 3 2 1 1 1 1 1 1 1 1 1
14 11 11 12 13 11 9 9 10 10 9 8 7 6 4 4 5 4 2 3 2 1 1 1 1 1 1 1 1 2 1 1
12 10 11 12 12 11 10 10 10 9 9 8 8 5 4 4 3 4 2 2 3 2 2 1 2 2 2 2 2 1 1 1
12 10 11 12 12 11 10 10 10 10 9 9 7 6 6 4 4 4 3 2 2 2 2 2 2 2 2 2 2 2 1 2
13 11 11 13 14 13 11 10 9 9 9 8 8 7 6 5 4 4 3 3 2 2 2 2 1 2 5 4 4 3 3 3
11 13 17 12 18 14 12 11 10 10 10 10 8 7 7 6 5 6 3 2 2 2 2 2 3 3 4 3 4 3 3 2

GFSFLT1_con_lsi_063.txt.gz
Lid_Strength_Index
12 15 16 15 12 11 9 9 10 10 8 8 6 4 4 2 1 0 1 0 0 -1 -0 -1 -1 -1 -1 -1 -1 -1 -1 -1
14 14 12 12 10 10 9 8 9 9 9 5 3 3 2 1 1 1 1 0 -0 -0 -0 -1 -1 -1 -1 -1 -1 -1 -1 -1
15 13 11 10 9 9 9 10 9 9 10 6 3 2 2 2 1 1 1 0 0 -0 -1 -1 -1 -1 -1 -1 -1 -1 -1 -1
15 12 10 9 8 8 9 9 8 10 9 6 3 3 2 1 1 1 1 0 0 -0 -0 -0 -1 -1 -1 -1 -1 -1 -1 -1
14 11 11 9 7 7 8 9 10 8 9 6 4 2 2 3 2 1 1 1 0 0 -0 -1 -0 -0 -0 -0 -0 -0 -0 -0
12 12 10 7 6 7 8 8 6 8 9 7 4 2 2 3 3 1 1 1 1 0 0 0 0 -1 -1 -0 -0 -0 -0 -1
11 10 9 6 8 5 5 6 6 7 7 4 2 2 2 3 3 2 2 1 1 1 0 0 0 -0 -0 -1 -1 -1 -1 -1
8 7 8 7 7 6 6 7 7 7 6 6 3 3 4 4 4 3 3 2 1 1 1 0 0 0 0 0 0 0 0 0
9 8 8 8 8 6 8 9 7 7 7 6 5 5 5 4 3 3 2 2 1 1 0 0 1 0 0 0 0 0 0 0
10 9 9 10 8 8 8 8 6 6 6 6 7 7 7 6 4 3 2 2 1 1 1 0 0 0 0 0 0 0 0 0
11 11 11 9 10 9 9 7 6 5 5 6 6 6 6 4 4 2 3 2 1 1 1 1 1 0 0 0 0 0 0 0
12 12 11 11 11 10 10 8 7 7 7 6 6 6 5 3 4 4 2 2 1 1 1 1 1 1 1 0 0 0 0 0
11 11 11 10 12 12 9 8 8 8 7 7 6 5 4 4 3 3 3 2 2 1 1 1 2 2 1 1 1 0 0 0
12 10 10 10 14 10 10 10 10 9 8 8 7 6 5 4 3 3 3 2 2 1 1 2 1 1 1 0 1 1 2 1
13 10 11 11 14 11 9 10 11 11 10 9 9 8 6 4 3 4 3 3 2 2 2 2 2 1 1 1 1 1 0 1
15 12 11 12 13 11 9 9 10 12 11 11 10 9 8 6 3 4 3 3 3 2 2 2 1 1 1 1 1 1 1 0
13 11 13 13 13 12 10 10 10 10 11 11 11 9 8 7 5 4 4 3 3 3 3 2 2 2 2 2 2 1 1 1
13 11 12 13 13 11 11 11 11 11 10 10 10 10 9 8 8 7 5 3 3 2 2 2 2 1 2 2 1 1 1 2
14 12 12 13 15 13 11 11 10 9 9 9 9 9 8 8 9 8 7 5 3 3 2 2 1 2 4 3 4 3 3 3
13 14 18 13 19 15 13 12 11 10 10 10 9 9 9 8 8 9 9 7 4 2 2 1 1 2 2 3 3 3 3 3

GFSFLT1_con_lsi_069.txt.gz
Lid_Strength_Index
10 12 14 12 10 8 7 6 6 7 7 7 6 3 4 1 0 0 -0 -1 -1 -1 -1 -1 -1 -1 -1 -1 -1 -1 -1 -1
12 14 12 11 9 7 7 6 5 5 6 6 2 2 1 0 1 1 -0 -1 -1 -1 -1 -1 -1 -1 -1 -1 -1 -1 -1 -1
12 13 12 10 8 7 7 6 5 5 6 6 3 1 1 0 1 0 -0 -1 -1 -1 -1 -1 -1 -1 -1 -1 -1 -1 -1 -1
13 12 11 10 7 7 7 6 5 5 6 6 2 2 1 1 1 -0 0 -0 -1 -1 -1 -1 -1 -1 -1 -1 -1 -1 -1 -1
11 11 10 10 7 7 6 5 5 4 7 5 4 1 1 1 1 0 -0 -0 -1 -1 -1 -1 -1 -1 -1 -1 -1 -1 -1 -1
10 11 11 8 7 6 6 6 3 3 7 6 5 1 2 1 0 0 -0 -0 -0 -1 -1 -1 -1 -1 -1 -1 -1 -1 -1 -1
10 10 10 6 8 6 5 5 4 4 5 5 4 1 1 2 1 1 1 0 -0 -0 -1 -1 -1 -1 -1 -1 -1 -1 -1 -1
7 7 8 7 8 8 7 6 5 5 4 5 5 2 2 3 2 2 1 1 0 -0 -0 -1 -1 -1 -1 -1 -1 -1 -1 -1
7 6 6 7 8 8 8 7 5 6 5 7 6 5 3 2 2 2 1 1 0 -0 -0 -0 -0 -1 -1 -1 -1 -1 -1 -1
7 7 8 8 8 9 9 7 6 6 6 6 7 6 6 5 2 2 1 1 0 -0 -0 -0 -0 -0 -0 -0 -1 -0 -1 -1
7 8 9 9 10 10 10 7 6 6 6 6 7 6 5 4 3 2 1 1 1 -0 0 -0 -0 -0 -0 -0 -0 -1 -1 -1
8 8 9 10 11 10 9 8 7 7 6 6 7 7 6 4 2 2 1 1 0 0 0 -0 0 -0 -0 -0 -1 -1 -1 -1
8 8 9 9 12 11 9 8 8 7 7 7 7 7 7 6 5 3 2 1 0 0 -0 0 0 -0 -0 -0 -0 -0 -0 -1
9 9 9 9 13 10 10 10 9 9 8 7 7 7 6 6 5 4 3 2 1 0 0 0 0 0 0 -0 -0 -0 -1 -1
11 8 9 9 11 10 9 10 10 9 8 8 7 6 5 6 5 4 4 2 2 0 1 0 0 0 -0 -0 -0 -0 -1 -1
12 10 9 10 10 9 9 10 10 10 9 8 8 7 6 5 5 4 4 3 3 1 1 0 0 -0 0 0 -0 -0 -0 -0
11 10 10 10 10 9 8 9 9 8 9 9 8 7 6 5 4 5 4 3 3 3 1 0 1 1 1 2 1 0 0 -0
10 9 10 10 11 10 9 8 8 8 7 7 7 7 7 6 5 4 4 3 3 3 2 1 1 1 1 1 1 0 -0 -0
12 10 9 11 12 11 9 8 8 7 7 7 7 6 6 6 5 4 4 3 3 3 2 2 -0 0 1 0 1 1 1 1
11 12 14 11 16 12 10 10 9 8 7 7 7 6 5 4 4 5 5 4 3 2 2 1 1 0 1 2 2 2 1 1

GFSFLT1_con_lsi_072.txt.gz
Lid_Strength_Index
8 10 12 10 8 7 6 5 4 4 4 6 5 2 2 0 -0 -1 -1 -1 -1 -1 -1 -1 -1 -1 -1 -1 -1 -1 -1 -1
10 11 10 11 8 6 6 5 4 4 5 4 2 2 1 -0 -0 -0 -0 -1 -1 -1 -1 -1 -1 -1 -1 -1 -1 -1 -1 -1
9 10 10 10 8 7 6 6 5 4 5 4 2 0 0 0 -0 -0 -0 -1 -1 -1 -1 -1 -1 -1 -1 -1 -1 -1 -1 -1
10 9 10 9 9 7 6 6 5 4 4 4 1 1 1 0 -0 -0 -0 -1 -1 -1 -1 -1 -1 -1 -1 -1 -1 -1 -1 -1
8 8 9 9 7 7 6 5 5 3 5 3 2 1 0 0 -0 -0 -1 -1 -1 -1 -1 -1 -1 -1 -1 -1 -1 -1 -1 -1
7 8 8 7 7 6 6 6 3 3 5 5 3 1 0 0 1 -0 -0 -0 -1 -1 -1 -1 -1 -1 -1 -1 -1 -1 -1 -1
8 7 7 6 8 6 5 5 4 3 3 3 3 3 2 1 1 0 0 -0 -1 -1 -1 -1 -1 -1 -1 -1 -1 -1 -1 -1
5 5 6 5 6 7 8 7 5 3 2 2 3 4 4 3 2 1 1 0 -0 -1 -1 -1 -1 -2 -1 -1 -1 -2 -2 -2
5 4 4 5 6 5 8 8 7 5 4 3 4 4 5 4 2 1 1 0 -0 -1 -1 -1 -1 -1 -1 -1 -1 -1 -2 -2
4 4 4 5 5 6 6 7 6 5 4 4 5 5 5 4 4 1 1 0 -0 -1 -1 -1 -1 -1 -1 -1 -1 -1 -1 -2
5 4 4 4 5 6 6 6 6 6 4 4 5 4 4 4 3 2 1 0 -0 -1 -1 -1 -1 -1 -1 -1 -1 -1 -1 -2
5 5 5 6 6 6 7 6 7 6 6 5 5 6 5 4 3 1 1 1 -0 -0 -1 -1 -0 -0 -1 -1 -1 -1 -1 -1
6 6 6 5 7 8 6 7 7 5 6 5 5 6 7 5 4 3 2 1 -0 -0 -1 -0 -1 -1 -0 -1 -1 -1 -1 -2
7 7 6 6 9 6 6 7 7 7 6 4 5 6 6 6 5 4 3 2 1 0 -0 -0 -0 -0 -0 -1 -1 -1 -1 -1
9 7 7 7 8 6 6 7 8 8 7 6 6 5 5 6 5 4 3 3 2 1 0 -0 -0 -0 -1 -1 -1 -1 -1 -0
10 8 7 8 8 6 6 6 7 7 7 8 7 6 5 5 5 4 2 1 2 2 -0 -0 -0 -0 0 -0 -0 -1 -1 -1
8 7 8 8 8 7 6 6 6 7 7 8 7 6 5 5 4 4 3 2 1 1 -0 0 1 1 1 1 0 0 -0 -1
8 7 8 8 9 7 6 6 6 6 6 7 7 6 6 5 4 3 3 2 2 2 1 0 0 0 1 1 0 0 -0 -1
10 8 8 8 9 8 7 6 6 5 5 5 5 6 7 5 4 3 3 3 2 1 1 -0 -0 0 1 0 1 1 1 0
9 10 12 8 13 9 8 7 7 5 5 5 5 5 4 4 5 4 3 3 2 1 1 1 -0 -1 -0 1 2 1 1 0

GFSFLT1_con_lsi_075.txt.gz
Lid_Strength_Index
8 9 10 8 7 6 5 4 4 4 3 4 4 2 2 0 -0 -0 -0 -1 -1 -1 -1 -1 -1 -1 -1 -1 -1 -1 -1 -1
9 11 8 7 5 6 6 5 4 4 5 3 1 2 1 -0 -0 -0 -0 -1 -1 -1 -1 -1 -1 -1 -1 -1 -1 -1 -1 -1
8 9 8 6 5 6 7 6 5 4 5 4 2 0 0 0 -0 0 -0 -1 -1 -1 -1 -1 -1 -1 -1 -1 -1 -1 -1 -1
9 8 7 7 8 7 7 5 5 5 4 3 1 1 1 0 0 -0 -0 -1 -1 -1 -1 -1 -1 -1 -1 -1 -1 -1 -1 -1
8 7 7 6 6 7 7 6 5 3 5 3 2 1 0 0 -0 -0 -0 -0 -1 -1 -1 -1 -1 -1 -1 -1 -1 -1 -1 -1
7 8 7 4 4 4 6 7 2 3 5 4 2 1 1 0 0 0 -0 -0 -0 -1 -1 -1 -1 -1 -1 -1 -1 -1 -1 -1
7 7 6 4 5 4 3 6 4 3 3 2 1 0 1 1 1 1 0 -0 -0 -0 -1 -1 -1 -1 -1 -1 -1 -1 -1 -1
5 5 5 4 4 4 5 5 6 6 3 2 2 1 2 2 2 1 1 0 -0 -1 -1 -1 -1 -1 -1 -1 -1 -1 -2 -2
5 4 4 4 4 4 5 6 5 6 5 4 3 2 2 3 2 1 1 0 -0 -1 -1 -1 -1 -1 -1 -1 -1 -1 -2 -2
4 4 4 5 4 5 4 4 3 4 4 5 3 3 3 3 3 1 1 0 -0 -1 -1 -1 -1 -1 -1 -0 -1 -1 -1 -2
4 4 4 4 5 5 4 3 2 3 5 5 3 3 3 3 3 2 1 0 -0 -1 -1 -1 -1 -1 -1 -1 -1 -1 -1 -2
5 5 4 5 5 4 4 3 3 3 5 5 4 3 4 4 2 2 1 1 -0 -0 -1 -1 -0 -0 -1 -1 -1 -1 -1 -1
6 5 5 4 6 6 3 3 3 4 4 4 3 4 4 4 2 2 1 0 0 -0 -1 -0 -0 -1 -0 -1 -1 -1 -1 -2
6 5 5 5 9 5 3 4 4 3 4 3 4 4 4 3 3 3 3 2 0 0 -0 -0 -0 -0 -0 -0 -1 -1 -1 -1
7 6 6 6 8 5 3 4 4 4 3 4 3 3 3 3 4 4 3 2 2 -0 0 -0 -0 -0 -1 -1 -0 -1 -1 -1
8 6 6 7 7 5 4 4 4 4 4 4 3 3 3 3 3 4 2 1 1 0 0 -0 -0 -0 0 0 -0 -0 -0 -0
7 6 7 8 7 6 4 4 5 4 4 4 4 3 3 4 3 3 2 2 1 1 -0 0 1 1 1 2 1 0 -0 -1
7 6 6 7 8 6 5 5 4 4 4 4 4 3 3 4 4 3 3 2 2 2 0 0 0 0 1 1 0 0 0 -0
9 7 6 7 8 7 5 4 4 4 4 3 3 4 3 4 3 3 3 3 2 2 1 0 -0 0 0 0 1 1 1 1
8 9 11 7 12 8 6 6 5 5 4 4 4 3 3 3 3 4 3 3 2 1 1 0 -1 0 0 2 2 1 1 1

GFSFLT1_con_lsi_078.txt.gz
Lid_Strength_Index
10 11 12 10 7 7 5 5 5 5 4 4 5 3 2 1 0 0 0 -0 -1 -1 -0 -0 -1 -1 -1 -1 -1 -1 -1 -1
10 12 10 9 6 6 6 5 5 5 5 3 2 2 1 0 0 0 0 -0 -1 -1 -0 -0 -1 -1 -1 -1 -1 -1 -1 -1
10 10 9 8 6 5 6 5 5 5 6 4 2 1 1 1 0 1 0 0 -0 -1 -0 -1 -1 -1 -1 -1 -1 -1 -1 -1
10 8 8 6 6 5 6 6 5 5 5 4 2 2 1 0 0 0 0 -0 -0 -1 -1 -0 -0 -1 -1 -0 -1 -1 -1 -1
8 8 7 6 5 7 6 7 5 4 5 3 3 2 1 0 0 0 0 0 -0 -0 -1 -1 -1 -0 -1 -1 -1 -1 -1 -1
8 8 8 5 5 5 5 5 3 3 6 5 2 1 1 0 1 0 0 0 0 -0 -0 -0 -0 -1 -1 -1 -1 -1 -1 -1
8 8 7 5 5 4 3 5 4 3 4 3 1 2 2 1 1 1 1 1 0 0 -0 -0 -0 -1 -1 -1 -1 -1 -1 -1
6 5 6 5 5 5 5 5 5 4 3 2 3 3 2 2 2 2 1 1 0 0 0 -0 -0 -0 -1 -1 -1 -1 -1 -1
5 4 4 5 5 4 5 6 5 5 4 3 3 3 3 3 2 2 1 1 0 0 -0 -0 -0 -0 -0 -0 -0 -1 -1 -1
5 4 5 5 4 5 5 5 3 3 3 3 3 3 4 4 3 1 1 1 0 0 0 0 -0 0 -0 -0 -0 -0 -0 -1
4 4 4 4 5 5 5 3 3 3 3 3 3 3 1 2 3 1 0 1 0 0 0 0 -0 -0 -0 0 -0 -0 -0 -1
5 5 5 5 5 5 4 3 3 3 3 3 3 3 2 3 1 2 1 1 1 0 0 -0 -1 -1 -0 -0 -0 -0 -0 -0
6 6 6 5 7 7 4 3 4 4 3 3 3 2 3 2 2 1 1 1 1 0 0 0 0 -0 -0 -0 -1 -0 -0 -1
7 6 6 6 9 6 4 4 4 4 4 3 3 2 2 2 2 1 -0 -0 -1 0 0 0 0 0 -0 -0 -0 -0 -0 -1
8 5 6 6 9 6 4 4 5 4 4 3 3 2 2 1 2 2 1 0 -0 -1 -0 0 0 0 0 -0 0 -0 -0 -0
9 7 6 7 8 6 5 5 5 4 4 4 3 3 2 2 1 1 1 0 0 1 0 -0 0 1 0 0 0 -0 0 -0
8 7 7 8 7 7 5 5 5 5 4 4 4 2 2 2 1 1 1 1 0 1 1 1 1 2 2 2 1 1 0 -0
8 6 7 7 8 6 6 5 5 5 4 4 4 3 2 2 1 2 1 1 1 1 0 1 1 1 1 1 1 0 0 0
9 7 7 8 9 8 6 5 5 4 4 4 4 3 3 2 2 1 2 2 0 0 1 -0 0 0 1 1 1 1 1 1
8 9 12 8 13 9 7 7 6 5 4 4 4 3 3 3 2 1 1 0 1 0 0 1 0 0 1 2 3 2 1 1

GFSFLT1_con_lsi_081.txt.gz
Lid_Strength_Index
12 15 16 13 10 8 8 8 8 8 6 5 6 3 3 2 0 0 0 0 -0 -0 -0 -1 -1 -1 -1 -1 -1 -1 -1 -1
13 15 12 11 10 8 7 8 7 7 7 4 2 3 2 1 0 1 0 0 -0 -0 -0 -1 -1 -1 -1 -1 -1 -1 -1 -1
14 13 11 10 8 8 8 8 7 7 7 5 3 2 2 1 1 1 1 0 -0 -0 -0 -1 -1 -1 -1 -1 -1 -1 -1 -1
14 12 10 8 7 7 6 6 6 7 6 5 4 4 3 1 2 1 1 0 -0 -1 -0 -0 -0 -1 -0 -0 -1 -1 -1 -1
10 9 8 7 6 6 7 6 6 5 7 5 5 4 4 2 2 1 1 0 0 -0 -0 -1 -0 -0 -0 -0 -0 -0 -1 -1
9 10 10 7 7 7 7 6 4 3 6 8 5 4 4 3 3 1 1 0 0 -0 -0 0 0 -1 -0 -0 -0 -0 -1 -1
10 9 9 7 8 6 5 6 5 4 4 3 3 4 5 5 7 2 1 1 0 0 0 0 0 -0 -1 -1 -1 -1 -1 -1
8 7 8 7 7 7 6 6 6 5 3 2 3 4 5 6 7 6 2 1 1 0 0 0 -0 0 0 -0 -0 -0 -0 -0
7 6 6 6 7 6 7 8 6 6 4 3 3 5 5 4 6 7 3 1 1 1 0 0 1 0 0 0 0 0 0 -0
7 6 6 7 6 7 7 7 4 4 4 3 4 5 5 4 5 4 5 2 2 1 1 0 0 0 0 0 0 0 0 0
7 7 7 6 7 7 7 6 5 3 3 4 4 4 4 4 4 3 2 2 2 1 1 0 1 0 0 0 0 0 0 0
8 8 8 8 8 7 6 6 6 6 4 4 4 4 4 4 4 3 2 2 2 2 1 0 1 0 0 0 1 0 0 -0
8 8 9 7 9 9 6 5 6 6 5 5 4 4 4 4 4 2 2 2 1 3 1 1 1 1 0 0 0 1 0 0
10 7 7 8 11 8 6 6 7 6 6 5 4 4 4 3 2 2 2 2 2 2 4 1 1 1 0 0 0 0 0 -0
10 7 8 8 10 7 6 6 7 7 6 5 6 5 3 2 2 3 2 2 2 2 2 1 1 1 1 0 1 0 1 0
11 9 8 10 10 8 7 7 7 7 6 6 5 5 3 3 3 2 2 2 2 1 2 3 1 1 1 1 1 1 1 1
9 8 10 11 10 9 8 8 8 8 7 6 6 4 4 2 2 2 2 2 2 2 2 3 2 2 2 2 1 1 1 1
10 8 9 11 11 9 8 8 8 7 7 6 6 5 4 3 3 3 3 2 2 2 2 2 3 3 1 1 1 1 1 1
11 9 9 10 11 10 8 7 7 6 6 6 6 6 5 3 3 3 3 2 2 2 2 1 1 2 5 4 2 2 1 1
9 11 15 10 15 11 9 8 7 6 6 6 6 5 4 4 3 3 3 2 2 2 2 1 1 2 2 3 5 3 3 1

GFSFLT1_con_lsi_084.txt.gz
Lid_Strength_Index
13 16 16 14 12 10 8 8 8 8 5 5 6 4 3 2 1 0 0 -0 -0 -1 -1 -1 -1 -1 -1 -1 -1 -1 -1 -1
13 15 13 12 11 9 7 7 7 7 7 4 3 3 2 1 0 1 0 -0 -0 -0 -1 -1 -1 -1 -1 -1 -1 -1 -1 -1
15 14 12 10 9 10 8 7 7 5 7 6 6 2 1 1 1 1 1 0 -0 -0 -1 -1 -1 -1 -1 -1 -1 -1 -1 -1
14 12 10 10 9 9 9 7 7 7 6 6 4 5 6 1 1 0 1 0 -0 -0 -0 -1 -1 -1 -1 -1 -1 -1 -1 -1
12 11 10 9 8 9 8 8 7 6 7 6 6 5 6 2 1 1 0 0 0 -0 -0 -1 -1 -1 -1 -1 -1 -1 -1 -1
11 11 11 7 8 8 8 7 4 4 8 8 5 5 5 5 1 1 1 0 0 0 -0 -0 -0 -1 -1 -1 -1 -0 -1 -1
12 10 9 6 9 7 6 6 5 4 5 4 5 5 6 7 2 2 1 1 0 0 0 0 -0 -0 -1 -1 -1 -1 -1 -1
9 9 9 7 8 8 7 7 7 6 4 4 5 6 6 7 6 3 2 1 1 0 0 0 -0 -0 -0 -0 -0 -0 -0 -0
9 8 7 7 7 8 7 8 6 6 5 4 5 5 6 6 7 4 2 1 1 1 0 0 0 -0 0 0 0 -0 0 0
8 7 7 8 6 8 8 7 5 4 4 4 5 6 5 5 5 4 3 2 1 1 1 1 0 0 0 0 1 1 0 0
8 8 8 7 7 8 8 7 6 5 4 4 5 5 5 5 5 3 2 3 3 1 1 1 0 0 0 0 0 0 1 0
10 10 10 9 9 9 7 7 7 7 6 4 5 5 5 5 5 3 3 4 3 2 1 1 1 1 0 0 0 0 -0 -0
10 9 10 9 10 10 8 6 7 8 7 6 4 4 5 4 5 4 3 3 2 1 1 1 1 0 0 0 0 0 0 -0
11 9 8 9 12 9 7 7 7 7 7 6 5 5 5 4 5 3 3 3 4 1 1 1 1 1 0 0 1 0 0 -0
12 9 9 9 11 8 7 7 8 8 7 6 6 5 5 5 4 3 3 3 4 6 3 1 2 1 1 1 1 1 0 0
13 10 10 11 11 9 8 8 8 8 8 7 7 6 5 3 2 3 3 3 2 4 5 3 1 1 1 2 1 1 1 0
11 9 11 11 11 10 9 9 9 9 9 8 7 6 3 3 3 3 2 3 2 2 4 4 2 2 2 2 2 1 1 1
11 9 11 11 11 10 9 9 9 9 8 8 7 6 5 4 4 3 3 3 3 3 2 3 4 4 3 3 2 1 0 0
12 10 10 11 12 11 9 9 8 8 8 7 7 7 6 4 4 3 3 3 3 3 2 2 2 3 5 5 3 2 2 1
10 12 16 11 17 13 10 9 9 8 9 8 7 6 6 4 4 3 3 3 3 3 2 2 1 2 4 4 5 4 3 1

GFSFLT1_con_lsi_087.txt.gz
Lid_Strength_Index
14 16 16 14 12 12 9 8 7 9 6 7 6 3 3 2 1 0 0 -0 -0 -1 -1 -1 -1 -1 -1 -1 -1 -1 -1 -1
14 15 14 12 11 11 9 7 6 6 7 5 5 4 2 1 0 1 0 -0 -0 -1 -1 -1 -1 -1 -1 -1 -1 -1 -1 -1
15 14 12 10 10 10 10 9 7 6 7 6 7 2 1 1 1 1 1 0 -0 -1 -1 -1 -1 -1 -1 -1 -1 -1 -1 -1
15 12 10 10 9 10 10 9 7 7 7 7 5 5 2 1 1 0 1 0 -0 -1 -1 -1 -1 -1 -1 -1 -1 -1 -1 -1
13 11 10 9 9 10 11 9 9 6 8 7 6 6 2 1 1 1 0 0 -0 -0 -0 -1 -1 -1 -1 -1 -1 -1 -1 -1
12 11 11 7 8 9 10 10 6 5 8 9 7 7 3 2 1 1 1 0 0 -0 -0 0 -0 -1 -1 -1 -1 -1 -1 -1
12 11 9 8 9 8 7 9 7 6 7 5 5 7 2 3 2 2 1 1 0 0 0 0 -0 -0 -1 -1 -1 -1 -1 -1
10 9 9 8 9 8 9 9 9 7 5 5 6 6 4 4 4 3 2 2 1 0 0 0 -0 -0 -0 -0 -0 -0 -0 -0
9 8 8 8 9 7 9 10 8 8 7 5 6 7 7 6 3 3 2 1 1 0 0 0 0 0 -0 -0 -0 0 -0 -0
9 8 9 9 7 8 9 9 7 6 6 5 6 6 7 7 6 4 2 2 1 1 1 1 0 0 0 1 1 0 1 0
10 10 10 8 9 8 8 8 7 6 6 6 5 5 6 6 3 2 3 2 1 1 1 1 1 0 0 1 0 1 0 1
11 10 11 10 10 10 9 7 8 7 7 7 6 5 5 5 3 3 3 2 1 1 1 1 0 1 0 1 0 0 0 0
11 10 10 10 12 11 8 7 8 8 8 8 7 5 5 5 5 3 2 2 2 2 2 1 1 0 0 0 1 1 1 0
12 10 9 10 14 10 8 8 8 8 8 8 7 6 4 4 5 4 4 3 2 2 2 2 1 0 0 0 0 1 1 0
13 10 10 11 13 10 8 9 9 9 8 7 7 7 6 4 5 5 4 4 3 2 2 2 1 1 0 0 0 0 0 0
14 11 11 12 12 11 9 9 9 9 9 8 8 7 6 5 5 5 4 4 5 4 3 2 1 1 1 1 1 1 0 0
12 10 12 12 12 11 10 10 10 9 9 9 8 6 6 3 3 3 3 3 3 5 5 2 2 3 3 2 2 2 1 -0
11 10 12 12 12 11 10 10 10 9 9 9 9 8 6 4 4 3 3 3 3 5 6 6 3 3 3 3 3 2 2 1
12 11 11 12 14 12 10 9 8 9 8 8 8 8 8 6 4 4 3 3 3 3 5 5 5 6 6 5 4 3 2 2
12 14 16 12 17 14 12 11 9 8 9 9 8 8 8 7 4 4 3 4 4 3 3 3 4 5 7 6 5 4 4 4

GFSFLT1_con_lsi_093.txt.gz
Lid_Strength_Index
9 11 13 12 10 9 8 7 6 5 4 5 5 4 3 1 0 -0 -0 -1 -1 -1 -1 -1 -1 -1 -1 -1 -1 -1 -1 -1
11 12 11 10 9 9 8 7 5 5 6 4 4 3 1 0 0 0 -0 -1 -1 -1 -1 -1 -1 -1 -1 -1 -1 -1 -1 -1
11 12 11 9 9 8 9 8 7 6 6 5 4 1 1 1 0 1 0 -1 -1 -1 -1 -1 -1 -1 -1 -1 -1 -1 -1 -1
13 12 10 9 8 8 9 9 8 8 7 5 3 2 1 0 0 -0 0 -0 -1 -1 -1 -1 -1 -1 -1 -1 -1 -1 -1 -1
11 11 10 9 8 8 9 9 8 7 9 5 3 2 1 0 0 -0 -0 -0 -1 -1 -1 -1 -1 -1 -1 -1 -1 -1 -1 -1
9 10 10 7 6 7 8 9 7 7 9 8 5 2 1 1 1 0 0 -0 -0 -1 -1 -1 -1 -1 -1 -1 -1 -1 -1 -1
10 9 8 6 7 5 6 7 7 7 7 6 4 1 2 2 2 1 1 0 -0 -0 -1 -1 -1 -1 -1 -1 -1 -1 -1 -1
7 7 7 7 7 7 7 7 7 7 6 6 4 2 3 3 3 2 2 1 0 -0 -0 -1 -1 -1 -1 -1 -1 -1 -1 -2
8 7 6 7 7 6 7 8 6 7 6 6 6 4 3 3 2 2 1 1 0 0 -0 -0 -0 -1 -1 -1 -1 -1 -1 -1
7 7 7 8 7 8 7 6 5 5 5 5 6 6 5 3 2 2 2 1 0 -0 -0 -0 -0 -0 -1 -0 -1 -0 -1 -1
8 8 8 8 8 8 8 6 4 4 5 5 5 4 3 2 2 1 2 1 1 0 0 -0 -0 -0 -0 -0 -0 -1 -1 -1
8 8 8 9 8 8 7 6 5 5 5 5 4 4 3 3 3 2 1 1 0 0 -0 -0 0 -0 -0 -0 -1 -1 -1 -1
8 7 8 8 9 9 6 7 7 6 5 6 5 4 4 2 1 1 1 1 1 1 0 0 0 -0 -0 -0 -0 -0 -0 -1
9 9 8 8 11 7 6 7 7 6 6 6 6 5 4 4 2 1 0 1 1 0 0 0 0 0 -0 -0 -0 -0 -1 -1
10 8 9 9 10 7 5 6 6 6 5 5 5 5 4 4 3 1 0 1 1 0 1 0 0 -0 -0 -0 -0 -0 -0 -0
11 9 8 9 9 7 6 6 6 6 5 4 4 3 3 3 4 3 1 0 1 1 0 0 0 0 0 0 -0 -0 -0 -0
10 8 10 9 9 8 6 7 6 5 5 4 4 2 2 2 1 1 1 0 1 1 1 1 1 1 1 2 1 1 0 -0
10 9 10 10 10 8 7 7 6 6 5 4 4 3 2 1 1 1 1 1 1 1 1 1 1 1 1 1 1 0 -0 -0
12 10 10 11 11 9 7 7 6 5 5 4 4 4 3 3 2 1 1 1 1 1 0 0 0 1 1 1 0 1 1 1
11 12 14 11 15 10 9 8 7 6 5 5 5 5 3 2 2 2 1 0 0 1 0 0 0 1 1 2 3 2 1 1

GFSFLT1_con_lsi_096.txt.gz
Lid_Strength_Index
7 8 10 10 7 7 7 5 5 5 4 4 5 3 2 0 -0 -1 -1 -1 -1 -1 -1 -1 -1 -1 -1 -1 -1 -1 -1 -1
9 9 8 8 8 7 7 6 5 4 5 3 2 2 1 -0 -0 -0 -0 -1 -1 -1 -1 -1 -1 -1 -1 -1 -1 -1 -1 -1
9 9 9 7 7 7 8 7 6 5 6 4 2 1 0 0 -0 0 -0 -1 -1 -1 -1 -1 -1 -1 -1 -1 -1 -1 -1 -1
11 10 9 7 7 6 7 7 7 7 6 4 2 1 1 0 0 -0 -0 -1 -1 -1 -1 -1 -1 -1 -1 -1 -1 -1 -1 -1
10 10 9 8 6 7 7 7 7 6 8 5 3 1 0 0 -0 -0 -1 -1 -1 -1 -1 -1 -1 -1 -1 -1 -1 -1 -1 -1
8 10 10 6 5 5 7 7 6 6 6 5 4 2 0 0 0 -0 -0 -0 -1 -1 -1 -1 -2 -1 -1 -1 -1 -1 -1 -1
9 8 7 6 6 5 4 6 6 6 6 5 4 1 1 1 1 1 0 -0 -1 -1 -1 -1 -1 -1 -1 -1 -1 -1 -1 -1
6 6 6 6 6 6 7 6 6 6 4 5 4 3 2 2 2 2 1 0 -0 -1 -1 -1 -1 -2 -2 -2 -2 -2 -2 -2
6 5 6 6 6 5 6 6 5 5 5 4 5 5 3 2 1 2 1 0 -0 -1 -1 -1 -1 -1 -1 -1 -1 -2 -2 -2
6 6 6 6 5 6 6 5 4 4 3 3 4 3 5 4 2 1 1 0 -0 -0 -0 -0 -1 -1 -1 -1 -1 -1 -1 -2
6 6 6 6 7 6 6 5 4 4 3 3 3 3 3 3 2 1 1 1 0 -0 -0 -0 -0 -1 -0 -0 -1 -1 -1 -1
6 6 6 7 6 6 6 4 4 4 4 3 3 3 2 2 1 1 1 1 -0 -0 -0 -0 -0 -1 -0 -1 -1 -1 -1 -1
6 6 6 6 8 7 5 5 5 5 4 4 3 3 3 2 1 0 0 -0 0 -0 -0 -0 -0 -0 -0 -1 -1 -0 -1 -1
7 7 7 7 9 6 5 5 5 5 4 4 4 3 2 2 1 0 -0 -0 -0 -0 -0 -0 -0 -0 -0 -0 -0 -1 -1 -1
9 7 7 7 8 6 4 4 5 4 4 4 3 2 1 1 1 0 -0 -0 -0 -1 0 -0 -0 -0 -0 -1 -0 -0 -1 -0
9 7 7 7 7 6 5 5 4 4 4 3 3 2 1 1 0 0 -0 -1 -0 -0 -0 -0 -0 0 -0 -0 -0 -0 -0 -0
8 7 8 8 7 6 5 5 5 4 4 3 3 2 1 1 0 0 -0 -0 -0 -0 -0 0 1 1 1 1 1 0 -0 -1
8 7 8 8 8 6 5 5 5 4 4 3 3 2 2 1 0 0 0 -0 -0 -0 -0 0 1 0 1 1 0 0 -0 -0
10 8 8 8 9 8 6 5 5 5 4 3 3 3 2 2 1 1 1 0 -0 -0 -0 -0 -0 0 0 0 0 1 1 0
9 10 12 8 13 9 7 7 6 5 5 4 4 4 3 2 1 1 1 0 -0 -0 -0 -0 -1 0 1 2 2 1 1 0

GFSFLT1_con_lsi_102.txt.gz
Lid_Strength_Index
9 9 11 10 7 7 6 5 5 5 3 4 5 3 3 1 0 -0 0 -0 -1 -0 -0 -1 -1 -1 -1 -1 -1 -1 -1 -1
10 11 8 7 6 5 5 5 5 5 5 3 2 2 1 0 0 0 0 -0 -0 -0 -1 -1 -1 -1 -1 -1 -1 -1 -1 -1
10 9 8 6 5 5 6 5 5 5 5 5 2 1 1 1 0 1 0 -0 -0 -1 -1 -1 -1 -1 -1 -1 -1 -1 -1 -1
11 10 7 6 4 5 6 5 5 6 6 5 2 2 1 0 0 0 0 -0 -0 -1 -1 -1 -1 -1 -1 -1 -1 -1 -1 -1
10 10 8 6 4 5 6 6 5 4 7 4 3 1 1 0 0 0 0 0 -0 -0 -1 -1 -0 -1 -0 -0 -1 -1 -1 -1
10 10 10 6 4 4 5 6 4 4 7 7 4 3 1 1 1 0 0 0 0 -0 -0 -1 -1 -1 -1 -1 -1 -1 -1 -1
11 10 9 6 6 4 4 5 5 5 5 4 4 3 2 1 1 1 1 0 0 0 -0 -0 -0 -1 -1 -1 -1 -1 -1 -1
7 7 7 6 5 5 6 6 5 5 4 3 3 3 3 2 2 2 1 1 0 0 0 -0 -0 -0 -1 -1 -1 -1 -1 -1
6 5 5 6 6 6 6 7 5 5 4 3 4 3 3 3 2 2 1 1 1 0 0 -0 -0 -0 -0 -0 -0 -0 -1 -1
5 5 6 6 5 6 5 5 4 4 3 3 3 2 3 3 3 2 1 1 0 0 0 0 -0 0 -0 -0 -0 -0 -0 -1
5 5 5 5 6 6 5 4 4 3 4 3 3 2 2 2 2 1 1 1 1 1 1 0 0 -0 0 0 -0 -0 -0 -1
5 6 5 6 6 6 5 4 4 4 4 4 3 3 2 2 2 1 0 1 1 1 1 0 1 -0 -0 -0 -0 -0 -0 -0
6 6 6 5 8 7 5 4 5 5 4 4 3 3 2 2 0 0 1 -2 1 1 3 0 0 0 0 -0 -0 0 -0 -0
6 6 6 6 10 6 4 5 5 5 4 4 3 3 2 1 0 -5 -0 1 -1 0 1 1 1 0 0 0 -0 0 -0 -0
8 5 6 7 8 6 4 5 5 5 4 4 3 2 2 1 -1 -2 1 1 1 0 0 1 0 0 0 0 0 0 -0 -0
8 6 6 7 8 6 5 5 5 4 4 4 3 3 2 1 1 1 1 0 0 0 0 -0 -0 0 0 1 0 0 0 0
7 6 7 7 7 6 5 5 5 4 4 4 3 2 1 1 1 1 1 0 0 0 0 0 1 1 2 2 1 1 0 0
7 6 7 7 8 6 5 5 5 4 4 4 3 3 2 1 1 1 1 0 -0 -0 0 0 1 1 1 1 1 1 0 0
9 7 6 7 9 7 6 5 4 4 4 3 3 3 2 2 2 1 1 0 -0 -1 -1 -0 0 1 1 1 1 1 1 1
8 9 11 7 12 8 7 6 5 5 4 4 3 3 2 2 2 1 0 -0 0 0 0 -0 -0 1 2 2 3 2 1 1

GFSFLT1_con_lsi_105.txt.gz
Lid_Strength_Index
13 14 14 13 8 7 7 6 7 7 5 5 6 3 3 1 1 0 0 0 -0 -1 -1 -1 -1 -1 -1 -1 -1 -1 -1 -1
15 15 11 10 8 6 6 6 6 6 7 4 2 3 2 1 0 1 1 -0 -0 -0 -0 -1 -1 -1 -1 -1 -1 -1 -1 -1
15 14 10 8 7 6 6 6 7 6 7 6 3 1 1 1 0 1 1 -0 -0 -0 -0 -1 -1 -1 -1 -1 -1 -1 -1 -1
17 14 11 8 7 6 7 6 6 7 6 6 2 2 2 1 1 1 1 0 -0 -1 -0 -0 -1 -1 -1 -1 -1 -1 -1 -1
15 13 11 10 8 7 7 6 7 6 7 8 6 2 2 2 1 1 0 0 0 -0 -0 -1 -0 -0 -1 -1 -1 -1 -1 -1
14 14 13 9 8 6 7 6 4 4 8 9 6 6 2 2 1 1 1 0 0 0 -0 0 -0 -1 -0 -1 -1 -1 -1 -1
15 13 12 9 10 8 5 6 5 5 6 5 5 4 5 4 2 2 1 1 0 0 0 0 0 -0 -0 -1 -1 -1 -1 -1
11 10 11 9 10 10 7 7 7 6 5 5 5 6 6 6 3 3 2 1 1 0 0 0 -0 0 0 -0 -0 -0 -0 -0
9 8 9 10 10 8 9 10 8 7 6 6 6 6 5 6 6 3 2 1 1 1 0 0 1 -0 -0 -0 -0 -0 -0 -0
7 6 8 9 8 8 9 9 7 6 6 6 6 7 5 5 6 7 4 1 1 1 1 1 0 0 0 0 0 -0 -0 -0
6 7 8 7 8 8 8 6 5 5 5 6 6 5 5 5 5 7 4 2 1 1 1 1 1 0 0 0 0 0 0 0
7 8 8 9 8 8 7 5 6 6 6 6 6 5 5 4 4 3 2 3 2 1 1 1 1 1 1 1 1 1 0 0
8 8 8 7 9 9 7 6 7 6 6 6 5 5 5 5 4 3 3 2 3 3 1 1 2 1 0 0 1 1 1 0
10 8 7 9 12 8 6 7 7 6 6 5 5 5 5 4 3 4 3 2 1 2 3 4 3 1 1 0 0 1 0 0
10 7 7 8 11 8 6 7 7 7 7 6 6 6 5 4 3 2 2 2 3 2 3 4 1 1 1 1 1 0 1 0
11 9 8 9 10 8 7 7 7 7 6 6 6 5 5 4 3 2 2 2 2 2 1 1 1 1 1 1 1 0 0 1
10 8 9 11 10 9 8 8 8 7 7 6 6 5 4 3 3 2 2 2 2 3 2 2 2 3 2 2 2 1 0 1
9 8 10 10 10 8 8 8 7 7 7 6 6 5 4 4 3 3 3 3 2 2 2 2 1 2 2 2 1 1 1 1
10 9 9 10 11 10 7 7 7 7 6 6 6 6 5 4 4 3 3 3 2 2 2 2 2 1 1 1 1 2 2 1
9 11 14 10 15 11 9 8 7 7 7 7 6 6 4 4 4 5 5 3 3 2 2 2 2 2 3 3 4 2 3 2

GFSFLT1_con_lsi_108.txt.gz
Lid_Strength_Index
13 16 16 14 11 9 7 6 7 8 5 6 7 4 3 1 1 0 0 -0 -0 -1 -1 -1 -1 -1 -1 -1 -1 -1 -1 -1
15 16 13 12 11 9 8 6 7 5 7 4 2 3 2 1 0 1 0 -0 -0 -1 -1 -1 -1 -1 -1 -1 -1 -1 -1 -1
17 15 12 10 9 9 7 8 8 6 7 6 3 2 1 1 1 1 1 -0 -0 -1 -1 -1 -1 -1 -1 -1 -1 -1 -1 -1
18 15 12 10 10 9 6 7 7 6 7 6 2 2 2 1 1 0 1 0 -0 -1 -1 -1 -1 -1 -1 -1 -1 -1 -1 -1
16 14 14 11 10 10 10 7 8 5 8 8 5 2 1 1 1 0 0 0 -0 -0 -0 -1 -1 -1 -1 -1 -1 -1 -1 -1
16 14 14 11 11 12 9 8 6 6 10 11 8 3 2 1 1 1 1 0 0 0 0 0 -0 -1 -1 -1 -1 -1 -1 -1
16 14 13 11 12 10 9 7 7 6 8 8 6 7 2 2 2 2 1 1 0 0 -0 -0 -0 -0 -0 -1 -1 -1 -1 -1
12 12 12 11 12 11 10 10 9 7 6 5 5 7 6 4 4 3 2 1 1 0 0 0 -0 -0 -0 -0 -0 -0 -0 -0
11 10 11 12 11 10 11 12 10 10 9 8 7 6 7 5 3 3 2 1 1 1 0 0 0 -0 -0 -0 -0 -0 -0 -0
10 9 10 11 10 11 11 10 8 9 8 8 9 8 7 7 6 7 2 2 1 1 1 1 0 0 0 0 -0 -0 -0 -0
8 8 9 9 10 10 10 8 8 8 7 7 7 7 7 7 7 7 3 2 2 1 1 0 0 0 0 0 0 -0 -0 -0
9 8 9 9 9 8 7 6 7 8 8 7 7 6 6 7 7 3 2 2 2 1 1 2 1 1 1 0 0 -0 -0 -0
9 9 9 8 10 10 7 6 7 7 7 7 7 7 7 6 6 5 2 2 1 1 1 1 1 0 0 1 1 1 1 -0
11 9 8 9 12 9 7 8 8 7 7 6 6 6 5 5 5 3 2 3 2 1 1 1 2 3 0 0 1 2 2 1
11 9 9 10 11 8 7 8 8 8 7 7 7 6 6 4 2 3 3 3 4 4 3 3 4 3 1 1 1 2 2 2
12 10 10 11 11 8 8 8 8 8 8 7 7 7 6 4 3 4 4 3 3 2 4 4 4 2 1 1 1 1 1 2
10 9 10 11 12 10 9 10 9 9 9 8 7 6 5 5 3 3 3 3 3 3 2 2 3 5 3 2 2 1 1 1
10 9 10 11 12 10 10 9 9 8 8 8 7 7 6 5 3 3 4 4 3 3 3 2 2 2 2 2 2 2 1 0
11 9 10 11 13 12 9 9 8 8 7 7 7 7 6 4 4 3 3 3 3 3 3 2 2 2 2 1 1 2 3 3
10 12 15 11 16 13 11 10 8 8 8 8 7 7 5 4 5 5 4 2 2 2 2 1 1 2 3 3 4 3 2 1

GFSFLT1_con_lsi_111.txt.gz
Lid_Strength_Index
14 17 17 15 12 10 9 8 7 7 5 6 7 4 4 2 1 0 0 0 -0 -1 -1 -1 -1 -1 -1 -1 -1 -1 -1 -1
15 17 14 13 12 11 10 9 7 6 8 5 3 3 2 1 0 1 0 0 -0 -1 -1 -1 -1 -1 -1 -1 -1 -1 -1 -1
17 15 13 12 10 11 11 9 7 6 8 7 3 2 1 1 1 1 1 0 -0 -1 -1 -1 -1 -1 -1 -1 -1 -1 -1 -1
18 15 12 12 11 11 11 10 7 7 7 7 3 3 2 1 1 0 1 0 0 -1 -1 -1 -1 -1 -1 -1 -1 -1 -1 -1
17 15 14 12 12 12 12 11 8 5 8 6 4 2 1 1 1 0 0 0 0 -0 -0 -1 -1 -1 -1 -1 -1 -1 -1 -1
16 15 15 11 12 12 12 11 6 5 8 9 4 2 1 1 1 1 1 0 0 0 -0 -0 -0 -1 -1 -1 -1 -1 -1 -1
16 14 14 13 13 11 9 9 9 8 7 7 4 2 2 3 2 2 1 1 0 0 0 0 -0 -0 -1 -1 -1 -1 -1 -1
13 12 13 13 13 12 11 10 9 9 9 9 3 3 4 4 4 3 2 1 1 0 0 0 -0 0 0 -0 -0 -0 -0 0
12 11 13 13 12 11 12 13 11 11 10 10 9 7 4 4 3 3 2 1 1 1 1 0 0 -0 -0 -0 -0 -0 0 -0
12 11 13 13 12 12 12 11 10 10 9 9 10 9 8 5 3 3 2 2 1 1 1 1 1 0 0 0 0 0 -0 0
11 12 13 11 12 12 12 10 9 10 9 10 10 10 8 6 7 4 3 2 1 1 1 0 1 0 0 0 0 -0 -0 -0
11 12 12 12 11 12 10 9 9 10 10 9 9 9 9 8 7 7 4 2 2 2 1 1 1 0 0 0 0 -0 -0 -0
11 10 11 11 13 12 9 8 9 9 9 9 8 8 7 7 7 2 2 2 2 2 2 1 1 1 1 0 0 0 0 0
11 9 9 9 13 9 8 8 9 8 9 9 8 8 8 7 7 3 2 2 2 1 2 1 1 1 0 1 1 1 1 1
11 9 9 11 13 9 8 9 9 9 8 8 8 7 6 6 6 2 2 3 2 2 1 1 3 2 0 0 1 2 2 2
12 10 10 12 12 10 8 9 9 9 8 8 8 7 6 5 3 2 3 3 3 2 2 3 4 3 3 1 0 1 2 3
11 9 11 12 12 11 9 11 11 10 10 9 8 7 7 4 3 4 4 5 5 5 5 4 5 5 5 3 2 2 1 1
11 10 11 12 12 11 10 11 10 10 9 9 9 8 7 5 5 6 6 7 6 6 6 6 5 6 5 5 3 3 3 2
12 10 11 12 13 12 10 9 9 9 9 8 9 8 8 6 5 6 6 4 3 3 3 4 3 4 4 3 3 3 2 1
11 13 16 12 17 14 11 11 10 9 9 9 8 7 7 5 4 4 4 4 5 4 3 3 3 3 3 3 4 3 2 1

GFSFLT1_con_lsi_114.txt.gz
Lid_Strength_Index
14 17 16 14 12 11 10 9 9 7 5 6 7 4 4 2 1 0 0 -0 -0 -1 -1 -1 -1 -1 -1 -1 -1 -1 -1 -1
15 17 14 13 12 12 11 10 8 6 8 5 3 4 2 1 0 1 0 -0 -0 -1 -1 -1 -1 -1 -1 -1 -1 -1 -1 -1
17 16 13 12 11 11 12 11 9 6 8 7 4 2 1 1 0 1 1 -0 -0 -1 -1 -1 -1 -1 -1 -1 -1 -1 -1 -1
18 16 12 12 12 12 13 12 7 8 7 7 3 3 2 1 1 0 1 0 -0 -1 -1 -1 -1 -1 -1 -1 -1 -1 -1 -1
17 15 15 12 13 13 13 12 9 5 9 7 4 2 1 1 1 0 0 0 0 -0 -0 -1 -1 -1 -1 -1 -1 -1 -1 -1
17 16 16 12 13 13 13 11 7 5 8 8 5 2 2 1 1 1 1 0 0 0 -0 0 -0 -1 -1 -1 -1 -1 -1 -1
17 16 14 12 13 11 11 11 9 9 7 6 3 2 2 3 2 2 1 1 0 0 0 0 -0 -0 -1 -1 -1 -1 -1 -1
14 13 14 13 13 12 11 10 10 9 9 3 3 3 4 4 4 3 2 1 1 0 0 0 -0 0 -0 -0 -0 -0 -0 -0
12 12 13 14 13 12 12 13 11 11 12 8 4 4 4 4 3 3 2 1 1 1 0 0 0 -0 -0 -0 -0 -0 -0 -0
13 11 12 13 13 13 12 11 11 11 10 11 8 6 4 4 3 3 2 2 1 1 0 0 0 0 -0 0 -0 -0 -0 -0
12 12 14 13 14 13 12 11 10 11 10 11 11 9 8 4 3 3 3 2 1 1 1 0 0 0 0 0 -0 -0 -0 0
13 13 14 14 13 13 12 10 10 11 11 10 10 10 10 9 7 3 2 2 1 1 0 0 0 0 0 0 -0 0 -0 -0
13 13 13 13 14 14 11 10 10 11 11 11 10 10 10 9 8 6 4 2 2 2 1 1 1 1 0 0 -0 0 0 -0
13 12 12 12 16 11 9 10 11 11 11 10 10 10 9 9 8 6 2 2 1 1 2 1 1 1 1 1 1 0 -0 -0
12 10 11 12 14 10 10 10 10 10 10 9 9 9 9 9 8 6 3 2 2 2 2 2 2 2 1 1 1 1 0 0
12 10 11 13 13 10 9 10 10 10 9 9 9 8 7 7 7 5 2 2 2 2 2 2 3 2 1 1 0 1 2 2
12 10 12 13 13 11 10 11 11 11 10 9 9 7 7 6 4 2 2 3 2 2 2 3 3 3 3 3 1 1 1 1
11 10 12 12 12 11 11 10 10 10 10 9 9 8 7 5 3 3 3 2 3 3 3 2 4 4 4 4 3 3 2 2
13 11 12 12 14 12 10 10 9 9 9 9 8 8 8 6 4 3 3 4 4 5 4 5 6 6 7 6 7 7 5 2
11 13 16 13 18 14 12 11 10 9 10 9 8 8 8 8 5 4 4 6 6 7 7 7 7 7 8 9 7 4 2 1

GFSFLT1_con_lsi_117.txt.gz
Lid_Strength_Index
9 10 11 11 8 7 7 7 8 7 4 5 6 4 3 1 0 -0 -0 -1 -1 -1 -1 -1 -1 -1 -1 -1 -1 -1 -1 -1
11 11 10 8 8 8 8 8 7 5 7 4 2 3 2 0 0 0 -0 -1 -1 -1 -1 -1 -1 -1 -1 -1 -1 -1 -1 -1
12 11 10 9 8 8 9 9 7 5 7 6 3 1 1 1 0 0 0 -1 -1 -1 -1 -1 -1 -1 -1 -1 -1 -1 -1 -1
13 12 10 9 8 9 10 9 8 6 6 5 2 2 1 0 0 -0 0 -1 -1 -1 -1 -1 -1 -1 -1 -1 -1 -1 -1 -1
13 12 12 10 9 10 9 9 7 4 7 5 4 2 1 0 0 -0 -0 -0 -1 -1 -1 -1 -1 -1 -1 -1 -1 -1 -1 -1
13 13 12 10 10 9 9 9 5 3 7 6 4 1 1 1 0 0 0 -0 -0 -1 -1 -1 -1 -1 -1 -1 -1 -1 -1 -1
13 13 12 10 10 9 8 9 7 6 6 3 2 1 2 2 2 1 1 0 -0 -0 -1 -1 -1 -1 -1 -1 -1 -1 -1 -1
11 11 12 11 11 10 9 9 7 6 4 3 2 2 3 3 3 2 2 1 -0 -0 -0 -1 -1 -1 -1 -1 -1 -1 -1 -2
12 11 10 11 11 10 10 10 8 7 5 4 3 3 3 3 2 2 1 1 0 -0 -1 -0 -0 -1 -1 -1 -1 -1 -1 -2
11 11 10 11 10 11 10 9 8 8 7 4 4 3 3 3 2 2 1 1 0 -0 -0 -0 -1 -0 -1 -0 -1 -1 -1 -1
11 11 11 11 11 11 10 9 8 8 8 7 3 3 3 2 2 1 2 1 0 -0 -0 -0 -0 -0 -1 -0 -0 -1 -1 -1
12 11 11 12 11 11 10 9 9 9 8 8 6 3 2 3 2 2 1 1 0 0 -0 -0 -0 -0 -0 -1 -1 -1 -1 -1
12 12 12 11 13 12 10 8 9 9 8 8 7 7 6 4 2 2 1 1 1 0 -0 -0 -0 -0 -0 -1 -1 -0 -1 -1
11 12 11 11 14 11 9 10 9 8 8 8 7 7 6 5 4 2 1 1 1 0 0 -0 -0 -0 -0 -0 -1 -1 -1 -1
12 10 10 11 13 10 9 9 9 8 7 7 6 5 5 4 4 2 1 0 1 0 0 0 -0 -0 -0 -1 -0 -1 -1 -1
11 9 10 10 11 9 8 8 7 7 6 6 6 5 3 2 3 2 1 0 0 0 0 0 0 -0 -0 -0 -0 -1 -0 -1
9 8 9 9 9 8 7 7 7 6 6 5 5 3 3 3 2 1 0 1 1 1 1 1 1 1 1 2 1 0 -0 -1
9 8 8 9 9 7 6 6 6 6 5 5 5 4 4 3 1 1 1 1 1 1 1 1 1 1 1 1 0 0 -0 -1
10 9 8 9 10 8 6 7 6 5 5 5 5 4 3 3 2 2 2 1 1 1 1 0 0 1 1 0 1 2 1 1
10 10 12 9 13 10 8 7 7 6 5 4 4 3 3 2 2 2 1 1 1 1 1 0 0 1 1 2 2 3 2 1

GFSFLT1_con_lsi_123.txt.gz
Lid_Strength_Index
6 8 10 8 6 5 4 4 4 4 4 5 5 3 2 1 -0 -0 -0 -1 -1 -1 -1 -1 -1 -1 -1 -1 -1 -1 -1 -1
7 9 7 6 5 4 5 4 4 4 6 4 2 2 1 -0 -0 -0 -0 -1 -1 -1 -1 -1 -1 -1 -1 -1 -1 -1 -1 -1
8 8 6 5 5 5 5 4 4 4 6 5 2 1 0 0 -0 0 -0 -1 -1 -1 -1 -1 -1 -1 -1 -1 -1 -1 -1 -1
10 8 6 5 4 4 4 4 4 4 5 5 1 1 1 0 0 -0 -0 -1 -1 -1 -1 -1 -1 -1 -1 -1 -1 -1 -1 -1
8 8 7 6 3 5 5 4 4 3 5 4 3 1 0 0 -0 -0 -0 -0 -1 -1 -1 -1 -1 -1 -1 -1 -1 -1 -1 -1
7 8 8 5 4 3 4 4 2 3 5 6 3 1 0 0 0 0 -0 -0 -1 -1 -1 -1 -1 -1 -1 -1 -1 -1 -1 -1
8 8 7 5 5 3 3 4 4 2 3 3 2 1 1 1 1 1 0 -0 -0 -0 -1 -1 -1 -1 -1 -1 -1 -1 -1 -1
5 6 7 5 5 5 5 5 4 3 3 2 2 2 2 2 2 1 1 0 -0 -1 -1 -1 -1 -1 -1 -1 -1 -2 -2 -2
5 5 6 6 6 5 6 6 4 4 3 3 2 2 2 2 2 2 1 0 -0 -1 -1 -1 -1 -1 -1 -1 -1 -1 -2 -2
5 5 6 7 7 6 7 6 4 4 3 3 3 3 2 2 2 1 1 0 -0 -1 -1 -1 -1 -0 -1 -1 -1 -1 -1 -2
5 5 6 7 8 7 8 6 5 4 4 3 3 2 2 1 1 1 1 1 0 -0 -0 -1 -1 -1 -1 -1 -1 -1 -1 -2
5 5 8 9 8 6 7 6 6 5 4 4 3 2 2 2 1 1 1 1 0 -0 -0 -1 -0 -1 -1 -1 -1 -1 -1 -1
7 7 7 6 9 8 6 7 7 6 5 4 3 2 3 2 1 1 1 0 0 -0 -0 -0 -0 -0 -1 -1 -1 -1 -1 -2
8 7 6 7 11 7 6 6 7 7 7 5 5 4 2 2 1 1 0 0 -0 -0 -0 -0 -0 -0 -0 -1 -1 -1 -1 -1
9 6 7 8 10 7 6 6 6 7 7 7 6 5 4 3 2 0 -0 -0 0 -0 -0 -0 -0 -0 -0 -1 -0 -0 -1 -1
10 7 7 9 9 7 7 7 6 6 7 6 6 5 4 4 3 2 1 -1 -0 -0 -1 -1 -0 -0 -0 -0 -0 -0 -0 -0
8 6 8 10 9 9 7 8 7 7 7 6 6 5 4 4 3 3 1 -0 -0 -0 -1 -0 1 1 1 1 0 0 -0 -0
7 6 7 9 11 10 9 8 7 8 8 6 6 5 5 4 4 2 0 0 0 0 -0 0 0 0 0 0 0 -0 -0 -0
9 7 6 8 10 11 10 8 8 7 7 6 6 6 5 5 3 2 1 1 0 0 0 0 -1 -0 -0 -0 0 0 1 0
8 9 11 7 12 9 9 7 8 7 6 6 6 3 2 2 1 1 1 0 -0 -0 0 0 -0 0 1 1 2 1 1 0

GFSFLT1_con_lsi_129.txt.gz
Lid_Strength_Index
12 13 13 12 9 8 6 5 6 7 5 6 7 4 4 1 1 0 0 -0 -0 -0 -1 -1 -1 -1 -1 -1 -1 -1 -1 -1
13 14 10 9 8 7 6 5 6 6 8 5 3 3 2 1 0 1 0 -0 -0 -0 -0 -1 -1 -1 -1 -1 -1 -1 -1 -1
15 12 10 7 6 7 7 6 5 5 8 7 3 1 1 1 1 1 1 -0 -0 -0 -1 -1 -1 -1 -1 -1 -1 -1 -1 -1
15 13 9 7 6 6 7 6 5 6 7 7 2 2 1 1 1 0 1 0 -0 -1 -0 -1 -1 -1 -1 -1 -1 -1 -1 -1
12 12 10 8 6 7 6 6 6 5 8 6 4 2 1 1 1 1 0 0 -0 -0 -0 -1 -1 -1 -1 -1 -1 -1 -1 -1
11 11 11 8 6 5 6 6 3 3 8 7 3 2 1 1 1 1 1 0 0 0 -0 -0 -0 -1 -1 -1 -1 -1 -1 -1
11 10 9 7 7 5 4 6 6 4 5 4 2 2 2 2 2 2 1 1 0 0 0 0 -0 -0 -1 -1 -1 -1 -1 -1
8 8 8 7 7 7 6 7 7 5 4 3 3 3 3 3 3 3 2 1 1 1 0 0 -0 -0 0 -0 -0 -0 -0 -0
7 7 6 6 6 5 7 10 8 8 6 4 4 3 4 3 3 3 2 1 1 1 0 1 0 0 0 0 0 0 0 0
7 6 7 7 6 6 7 8 6 6 4 4 4 4 4 3 3 2 2 1 1 1 1 1 0 0 0 0 0 0 0 0
6 6 7 6 7 7 7 6 6 5 5 4 4 4 3 3 2 3 2 2 1 1 1 1 0 0 0 0 0 0 0 0
6 7 6 8 7 7 6 6 7 6 6 5 4 4 4 3 3 3 2 2 1 1 0 0 1 1 0 0 0 0 0 -0
7 7 8 7 9 8 6 6 8 7 6 5 4 4 4 3 3 2 2 3 2 1 1 1 1 0 1 0 0 1 1 1
9 7 7 7 12 7 6 6 7 6 6 5 5 6 4 3 3 3 4 4 4 2 1 1 1 1 0 0 0 0 0 0
10 7 8 9 12 7 6 6 6 6 6 6 5 5 3 3 2 2 2 3 3 3 3 1 1 1 1 0 0 1 0 0
11 9 9 10 10 8 6 6 6 7 6 6 6 6 4 3 2 2 2 2 2 1 2 4 1 1 1 1 1 0 0 0
9 8 10 11 10 8 6 6 6 7 6 6 6 6 5 3 2 2 2 2 2 2 2 4 1 2 2 2 1 1 0 0
9 8 9 10 11 8 7 7 6 7 6 6 6 5 5 4 3 3 2 2 3 2 1 2 1 1 2 2 1 1 1 0
11 9 8 10 13 11 8 7 6 6 5 5 6 6 6 6 4 4 4 3 3 3 1 1 1 1 2 2 3 2 2 1
10 11 16 11 18 13 10 9 7 6 6 6 6 6 6 6 7 5 2 2 2 2 2 2 2 2 4 4 3 3 2 1

GFSFLT1_con_lsi_132.txt.gz
Lid_Strength_Index
12 15 15 13 11 9 8 6 6 7 5 6 7 4 4 1 1 0 0 -0 -0 -1 -1 -1 -1 -1 -1 -1 -1 -1 -1 -1
14 14 13 11 11 9 8 7 6 6 8 5 3 3 2 1 0 1 0 -0 -0 -1 -1 -1 -1 -1 -1 -1 -1 -1 -1 -1
16 14 11 9 9 8 8 8 6 6 8 7 3 1 1 1 1 1 1 -0 -0 -0 -1 -1 -1 -1 -1 -1 -1 -1 -1 -1
17 14 11 10 9 8 7 7 6 6 7 6 2 2 2 1 1 0 1 0 -0 -1 -1 -1 -1 -1 -1 -1 -1 -1 -1 -1
13 14 13 10 9 8 7 7 7 5 8 6 4 2 1 1 1 1 0 0 -0 -0 -0 -1 -1 -1 -1 -1 -1 -1 -1 -1
12 12 14 10 9 7 7 7 5 4 8 8 4 2 1 1 1 1 1 0 0 -0 -0 -0 -0 -1 -1 -1 -1 -1 -1 -1
13 11 10 9 10 6 4 7 6 5 5 4 2 2 2 3 2 2 1 1 0 0 0 -0 -0 -0 -1 -1 -1 -1 -1 -1
10 9 10 7 8 8 7 7 8 7 7 5 2 3 4 4 4 3 2 1 1 0 1 0 -0 -0 -0 -0 -0 -0 -0 0
10 8 7 7 7 7 7 9 8 8 5 4 4 4 4 4 3 3 2 1 1 1 1 0 0 0 -0 -0 -0 0 0 0
9 7 8 8 6 7 7 9 6 6 4 4 5 4 4 4 3 3 2 2 1 1 2 2 0 1 1 0 0 1 0 0
8 8 9 7 7 7 8 6 7 6 5 5 4 4 3 3 2 3 3 2 2 1 1 2 1 2 2 2 1 1 1 0
9 9 8 8 7 7 6 6 7 7 6 4 5 4 4 3 3 3 3 2 2 1 1 1 1 1 1 1 0 0 0 0
9 9 8 7 9 8 6 6 8 7 7 5 4 4 4 3 3 2 2 2 2 1 1 1 1 1 0 0 0 0 0 0
10 9 8 7 12 7 6 7 8 8 7 6 6 5 4 3 2 2 2 2 1 0 2 2 1 1 1 1 0 1 1 1
12 10 8 8 10 8 6 7 7 8 8 7 6 6 3 3 2 3 2 2 1 1 1 3 3 2 0 0 1 1 1 1
14 11 9 11 11 8 7 7 7 7 7 7 7 7 5 3 2 3 2 1 1 1 1 1 3 3 1 1 0 -0 0 0
12 10 10 11 11 9 7 7 8 7 8 7 7 7 6 3 2 2 3 2 2 2 1 1 3 2 2 2 1 1 0 0
11 9 9 10 11 9 8 8 7 7 7 7 7 7 5 3 3 3 3 2 3 2 2 3 2 2 2 1 1 1 0 1
12 10 9 11 13 11 8 8 6 6 5 6 5 6 7 5 4 3 3 2 2 2 2 1 1 1 1 1 2 2 2 2
10 13 17 11 18 13 10 9 7 7 6 6 6 5 7 7 5 3 3 2 2 2 1 1 1 2 2 2 3 2 2 1

GFSFLT1_con_lsi_138.txt.gz
Lid_Strength_Index
13 15 15 14 13 11 10 9 9 7 6 6 6 4 4 2 1 0 0 -0 -0 -1 -1 -1 -1 -1 -1 -1 -1 -1 -1 -1
15 15 13 12 10 10 10 9 8 6 8 5 3 3 2 1 0 1 0 -0 -0 -1 -1 -1 -1 -1 -1 -1 -1 -1 -1 -1
17 15 13 11 9 9 10 10 9 6 8 7 3 2 1 1 1 1 1 0 -0 -1 -1 -1 -1 -1 -1 -1 -1 -1 -1 -1
17 16 13 11 10 10 9 9 8 7 7 7 3 3 2 1 1 0 1 0 -0 -1 -1 -1 -1 -1 -1 -1 -1 -1 -1 -1
15 14 13 11 10 11 10 8 8 6 8 6 4 2 1 1 1 0 0 0 -0 -0 -0 -1 -1 -1 -1 -1 -1 -1 -1 -1
14 14 14 11 10 10 9 7 5 5 9 9 5 2 1 1 1 1 0 0 0 -0 -0 -0 -0 -1 -1 -1 -1 -1 -1 -1
14 12 12 10 12 9 6 7 7 5 5 4 3 2 2 3 2 2 1 1 1 0 0 -0 -0 -0 -1 -1 -1 -1 -1 -1
11 10 10 9 10 9 9 8 8 6 4 3 3 3 4 4 4 3 2 1 1 0 0 -0 -0 -0 -0 -0 -0 -0 -0 -0
11 9 8 8 9 9 10 10 8 8 6 4 4 4 4 4 3 3 2 1 1 1 0 0 -0 -0 -0 -0 -0 -0 -0 -0
10 9 8 8 7 7 8 9 5 5 4 4 5 4 4 4 3 3 2 1 1 1 1 0 -0 0 -0 -0 -0 -0 -0 -0
10 9 10 8 8 8 8 7 5 4 5 5 5 4 3 3 3 3 3 2 2 1 0 1 1 0 0 -0 -0 -0 -0 -0
10 10 10 10 10 9 7 5 5 5 5 5 5 4 4 3 3 3 3 2 2 2 2 2 1 1 0 -0 -0 -0 -0 -0
11 11 11 10 10 11 6 6 6 6 5 5 5 4 4 3 3 2 2 2 2 1 1 1 1 1 1 0 0 0 -0 -0
14 12 11 10 14 8 6 6 7 6 6 5 5 4 4 3 3 2 2 2 1 1 1 1 1 1 1 0 0 0 0 -0
16 12 12 11 14 10 7 7 7 7 6 5 5 4 3 3 2 2 2 2 1 1 1 1 0 0 0 0 0 -0 -0 -0
16 13 13 13 13 9 7 7 7 7 6 6 6 6 6 3 2 2 2 1 1 1 1 1 0 1 0 0 0 -0 1 0
15 12 13 13 12 10 7 7 7 7 7 7 6 5 5 3 2 2 2 2 2 2 1 1 1 2 2 2 1 1 1 0
15 13 13 13 12 10 8 8 7 7 7 7 6 5 5 4 3 3 3 2 2 2 1 1 1 1 1 1 1 0 0 1
15 12 11 12 14 12 9 8 7 7 7 6 6 5 5 5 4 3 3 2 2 2 1 1 2 2 1 1 1 1 1 1
11 13 16 11 19 13 11 10 8 7 7 7 6 5 5 4 4 3 3 2 3 2 2 2 3 3 3 3 3 2 1 1

GFSFLT1_con_lsi_141.txt.gz
Lid_Strength_Index
8 9 11 10 8 8 7 7 7 7 4 5 6 4 3 1 0 -0 -0 -1 -1 -1 -1 -1 -1 -1 -1 -1 -1 -1 -1 -1
10 10 8 8 7 8 7 6 6 5 6 4 2 3 1 0 -0 0 -0 -1 -1 -1 -1 -1 -1 -1 -1 -1 -1 -1 -1 -1
11 10 9 7 6 6 7 7 7 6 6 6 3 1 1 1 0 0 -0 -1 -1 -1 -1 -1 -1 -1 -1 -1 -1 -1 -1 -1
11 11 10 8 6 6 6 7 5 6 6 6 2 2 1 0 0 -0 0 -1 -1 -1 -1 -1 -1 -1 -1 -1 -1 -1 -1 -1
9 10 10 9 6 6 7 6 5 4 7 5 4 2 1 1 0 -0 -0 -0 -1 -1 -1 -1 -1 -1 -1 -1 -1 -1 -1 -1
9 9 9 8 8 6 6 6 3 3 7 7 4 1 1 1 1 0 0 -0 -0 -1 -1 -1 -1 -1 -1 -1 -1 -1 -1 -1
10 9 8 7 8 6 4 5 5 5 5 4 2 1 2 2 2 1 1 0 -0 -0 -1 -1 -1 -1 -1 -1 -1 -1 -1 -1
9 7 7 6 7 8 7 6 6 6 4 3 3 3 3 3 3 2 2 1 0 -0 -0 -1 -1 -1 -1 -1 -1 -1 -1 -2
9 7 6 6 6 7 8 8 5 7 6 4 3 3 3 3 3 2 1 1 0 -0 -1 -0 -0 -1 -1 -1 -1 -1 -1 -2
9 7 6 7 5 6 7 7 4 4 4 4 4 4 3 3 3 2 2 1 0 -0 -0 -1 -1 -1 -1 -0 -1 -1 -1 -2
7 7 7 6 6 5 5 4 4 4 4 4 4 4 3 2 2 2 2 1 1 -0 -0 -0 -0 -0 -1 -0 -1 -1 -1 -1
7 7 7 7 7 7 5 4 4 5 5 4 4 4 3 3 3 2 2 1 0 0 -0 -0 -0 -0 -0 -1 -1 -1 -1 -1
9 7 8 7 9 9 5 4 5 5 5 4 4 3 3 3 2 2 1 1 1 0 -0 -0 -0 -0 -0 -1 -1 -0 -1 -1
10 9 8 8 11 8 5 5 5 5 5 5 4 3 3 2 2 1 1 1 0 0 0 0 0 -0 -0 -0 -0 -0 -1 -1
12 9 9 9 11 8 6 4 5 5 5 4 4 3 2 2 2 1 1 1 1 0 0 0 -0 -0 -0 -0 -0 -0 -1 -1
13 11 10 10 10 8 5 5 5 5 5 4 4 3 2 2 1 1 1 1 1 0 0 -0 -0 -0 -0 -0 -0 -1 -1 -1
12 10 11 11 10 7 6 6 6 5 5 4 4 2 2 2 1 1 1 1 1 1 0 0 1 1 1 1 1 0 -0 -1
11 10 9 10 10 8 6 6 5 5 5 4 4 3 2 2 2 2 2 1 1 1 1 0 1 0 0 1 0 0 -0 -1
12 11 9 9 11 10 7 6 5 5 4 4 4 4 3 2 2 2 2 2 1 1 1 0 -0 0 0 -0 0 1 1 0
11 12 14 9 14 10 8 7 6 5 5 4 4 3 3 2 2 2 2 1 1 1 1 0 -0 1 1 2 2 1 0 -0

GFSFLT1_con_lsi_144.txt.gz
Lid_Strength_Index
7 8 10 8 6 5 5 5 5 5 4 4 6 3 2 0 -0 -1 -1 -1 -2 -1 -1 -1 -1 -1 -1 -1 -1 -1 -1 -1
9 9 7 6 5 5 5 5 5 5 5 4 2 2 1 -0 -0 -0 -0 -1 -1 -1 -1 -1 -1 -1 -1 -1 -1 -1 -1 -1
9 8 6 5 5 5 5 5 5 4 6 5 2 1 0 0 -0 0 -0 -1 -1 -1 -1 -1 -1 -1 -1 -1 -1 -1 -1 -1
9 9 6 5 4 4 5 4 4 5 5 5 2 1 1 -0 -0 -0 -0 -1 -1 -1 -1 -1 -1 -1 -1 -1 -1 -1 -1 -1
7 7 7 6 4 5 5 5 5 4 6 5 3 1 0 0 -0 -0 -1 -1 -1 -1 -1 -1 -1 -1 -1 -1 -1 -1 -1 -1
8 8 7 5 5 4 4 5 3 3 6 6 3 1 0 0 0 -0 -0 -0 -1 -1 -1 -1 -2 -1 -1 -1 -1 -1 -1 -1
9 8 6 4 6 5 4 4 4 4 4 3 2 1 1 1 1 1 0 -0 -1 -1 -1 -1 -1 -1 -1 -1 -1 -1 -1 -1
7 6 6 4 5 5 5 5 5 5 3 3 2 2 3 3 3 2 1 0 -0 -1 -1 -1 -1 -2 -2 -2 -2 -2 -2 -2
7 6 5 5 4 4 6 6 4 5 5 3 3 3 3 2 2 2 1 0 -0 -0 -1 -1 -1 -1 -1 -1 -1 -2 -2 -2
6 6 6 6 4 4 5 5 4 3 3 3 3 3 3 2 2 2 1 1 -0 -0 -0 -1 -1 -1 -1 -1 -1 -1 -1 -2
6 6 6 5 5 5 5 4 3 3 3 4 3 3 2 2 1 1 1 1 0 -0 -0 -1 -1 -1 -1 -1 -1 -1 -1 -2
6 6 6 7 6 5 4 3 3 4 4 3 3 3 2 2 2 1 1 1 0 -0 -1 -1 -0 -1 -1 -1 -1 -1 -1 -1
7 6 7 6 8 7 4 3 4 4 4 3 3 3 3 2 2 1 1 0 0 -0 -1 -1 -0 -1 -1 -1 -1 -1 -1 -2
8 7 7 7 10 7 4 4 4 4 4 4 3 3 2 2 2 1 1 1 0 -0 -0 -0 -0 -0 -0 -1 -1 -1 -1 -1
10 7 7 8 9 7 5 4 5 4 4 4 3 3 2 1 1 1 1 1 0 -0 -0 -0 -1 -1 -1 -1 -0 -1 -1 -1
10 9 8 8 8 7 6 5 4 4 4 4 3 3 2 1 1 1 0 0 0 0 -0 -1 -0 -0 -0 -0 -0 -1 -1 -1
9 8 8 8 8 7 6 6 5 4 4 4 3 2 1 1 1 1 0 1 1 1 -0 0 1 1 1 1 0 0 -1 -1
9 9 8 8 8 7 6 5 5 4 4 4 3 2 2 1 1 1 1 1 1 1 0 0 0 0 0 0 0 -0 -1 -1
11 9 8 9 9 8 6 4 4 4 3 3 3 3 2 2 1 1 1 1 1 0 0 -0 -0 0 0 -0 0 1 0 0
10 11 12 8 12 9 7 7 6 4 4 3 3 2 2 2 1 1 1 0 0 0 0 0 -0 0 0 1 2 1 0 -0

GFSFLT1_con_lsi_147.txt.gz
Lid_Strength_Index
6 8 9 8 6 5 4 4 4 5 4 4 5 3 2 0 -0 -0 -0 -1 -1 -1 -1 -1 -1 -1 -1 -1 -1 -1 -1 -1
8 8 7 6 5 4 4 4 3 4 5 4 2 2 1 -0 -0 -0 -0 -1 -1 -1 -1 -1 -1 -1 -1 -1 -1 -1 -1 -1
9 8 6 5 5 4 5 4 4 4 5 5 2 1 0 0 -0 0 -0 -1 -1 -1 -1 -1 -1 -1 -1 -1 -1 -1 -1 -1
9 8 7 5 4 4 4 4 4 4 5 5 1 1 1 0 0 -0 -0 -1 -1 -1 -1 -1 -1 -1 -1 -1 -1 -1 -1 -1
7 7 7 6 3 4 4 4 4 3 6 4 3 1 0 0 -0 -0 -0 -1 -1 -1 -1 -1 -1 -1 -1 -1 -1 -1 -1 -1
8 7 7 4 4 3 4 4 2 3 6 6 3 1 0 0 0 -0 -0 -0 -1 -1 -1 -1 -1 -1 -1 -1 -1 -1 -1 -1
8 7 6 4 5 3 3 3 3 3 4 3 2 1 1 1 1 1 0 -0 -0 -1 -1 -1 -1 -1 -1 -1 -1 -1 -1 -1
5 5 5 4 4 4 4 5 4 4 3 2 2 2 2 2 2 2 1 0 -0 -0 -1 -1 -1 -1 -2 -1 -2 -2 -2 -2
5 4 4 4 4 3 4 5 4 5 4 3 3 2 2 2 2 2 1 0 0 -0 -0 -1 -0 -1 -1 -1 -1 -2 -2 -2
5 4 5 5 4 4 4 4 3 3 3 3 3 3 3 2 2 1 1 1 -0 -0 -1 -1 -1 -0 -1 -1 -1 -1 -1 -2
5 5 5 4 5 4 4 3 2 3 3 3 3 3 2 2 1 1 1 1 0 -0 -0 -1 -1 -1 -1 -1 -1 -1 -1 -1
5 5 5 6 6 5 4 3 3 3 4 3 3 3 2 2 2 1 1 1 0 -0 -0 -1 -0 -1 -1 -1 -1 -1 -1 -1
6 6 6 5 7 7 4 3 3 4 3 3 3 2 3 2 2 1 1 0 0 -0 -0 -0 -1 -1 -1 -1 -1 -1 -1 -2
7 6 6 6 9 6 4 3 4 4 4 3 3 3 2 2 1 1 1 1 -0 -0 -0 -0 -1 -0 -0 -1 -1 -1 -1 -1
9 6 6 7 8 5 5 5 4 4 4 4 3 3 2 2 1 1 1 1 1 -0 -0 -0 -0 -0 -1 -1 -1 -1 -1 -1
9 7 7 8 7 5 5 5 4 4 4 4 4 3 2 2 1 1 1 1 1 0 -0 -1 -0 -0 -0 -0 -0 -1 -1 -1
8 6 8 8 7 6 5 5 4 4 4 4 3 2 2 1 1 1 1 1 1 1 0 0 1 1 1 1 0 0 -0 -1
8 6 8 8 8 6 5 5 4 4 4 4 3 3 2 2 1 1 1 1 1 1 0 0 0 0 0 0 0 -0 -0 -1
8 8 8 8 8 7 6 5 5 4 3 3 3 3 2 2 1 1 1 1 0 0 0 0 -0 0 0 -0 0 1 0 0
8 10 12 8 12 8 7 6 5 5 4 3 3 2 2 2 2 1 1 0 0 0 0 -0 -0 0 0 2 2 1 1 1